ECMWFFLT1_sfc_temp_009.txt.gz
Temp
58 57 57 57 57 59 58 59 59 59 60 60 59 60 60 63 61 59 59 59 59 61 62 62 60 62 63 63 63 64 64 63 62 61 61 61 61 62 63 62 62 65 66 67 67 63 60 59 61 66 68 68 69 71 72 72 72 72 69 70 73 72 70
59 59 59 59 58 58 57 57 57 59 60 61 59 59 60 61 62 60 58 58 59 59 61 62 61 61 60 60 61 60 62 62 62 62 61 61 61 61 62 61 62 61 62 63 65 65 62 60 61 63 64 66 66 67 70 72 72 71 71 71 73 74 71
60 59 58 57 57 56 56 56 57 58 58 59 59 59 60 60 59 60 60 59 57 58 61 59 59 60 60 60 59 59 60 60 61 62 62 62 62 62 62 62 61 61 61 61 61 61 62 63 59 60 62 62 62 64 66 68 71 70 70 71 71 73 72
58 58 57 57 56 56 55 56 56 57 56 58 58 58 59 60 59 60 59 59 59 59 59 59 59 59 59 59 60 60 59 59 59 60 61 62 62 62 63 62 62 62 61 60 60 61 61 60 58 60 63 66 64 63 64 68 70 73 72 69 70 71 71
58 59 57 57 56 56 56 56 56 56 57 57 57 57 57 58 58 58 58 58 58 57 57 58 59 60 59 58 58 59 59 59 60 61 60 60 61 61 61 62 62 63 63 62 62 62 61 60 61 61 62 64 66 65 68 64 67 70 72 72 71 72 70
58 58 57 57 56 57 55 56 56 56 56 57 57 56 56 56 56 56 57 57 56 56 57 57 57 57 58 59 59 58 58 58 58 58 58 59 60 60 61 62 62 63 63 64 64 62 62 61 61 58 62 62 59 61 63 67 65 68 70 72 73 72 73
58 58 57 58 57 57 57 56 55 54 54 55 55 55 56 56 57 57 56 56 56 56 57 55 56 56 56 57 58 57 57 58 58 58 58 59 59 60 61 61 62 63 63 64 64 63 61 60 59 59 60 60 61 61 63 63 64 66 66 71 74 74 73
58 57 56 58 58 57 57 57 56 54 54 54 55 55 57 57 56 56 57 57 56 56 56 55 57 55 55 56 56 57 57 57 58 58 58 58 59 59 59 60 61 62 62 64 64 64 64 62 62 61 59 57 57 57 57 60 62 64 66 69 74 71 72
59 58 57 57 57 57 56 56 55 54 54 54 55 56 56 55 55 56 56 56 55 55 55 55 54 55 54 54 55 56 55 59 57 57 58 58 58 58 58 59 60 61 62 63 64 64 63 64 62 62 60 58 56 55 56 56 58 59 66 66 71 73 71
57 57 57 55 56 57 56 54 54 54 54 54 55 55 56 56 54 54 54 54 54 54 53 54 54 54 54 53 54 53 54 55 56 56 56 56 57 58 58 58 59 60 61 62 63 63 63 63 63 63 63 61 59 55 55 55 56 56 60 66 64 68 74
58 57 56 56 55 56 55 54 54 55 53 54 55 57 55 55 54 58 54 53 53 53 53 54 53 53 53 53 52 52 53 53 54 55 56 57 57 58 58 59 60 59 61 61 61 62 63 64 63 62 62 62 61 58 58 55 56 58 59 62 65 64 67
57 57 56 56 56 56 55 54 53 54 53 54 54 54 54 54 53 53 52 52 52 53 52 52 52 51 52 52 52 53 52 52 52 53 54 55 57 57 57 57 59 60 61 61 61 62 62 62 63 63 62 62 60 61 59 58 55 59 62 60 61 65 63
57 57 55 55 56 55 55 54 54 53 53 53 52 53 52 53 52 52 52 52 52 51 51 52 51 51 51 50 51 52 51 51 52 52 53 55 56 56 56 57 58 59 60 61 61 62 62 62 62 62 62 61 61 61 60 59 57 58 61 60 60 62 64
56 56 55 54 55 54 53 54 53 53 53 53 52 52 52 52 52 52 51 52 52 51 51 51 51 51 51 50 49 50 50 51 51 52 52 53 54 55 56 56 57 58 60 60 61 61 61 62 62 62 62 61 60 61 60 59 58 58 61 60 60 60 62
56 56 55 54 55 54 53 53 52 52 52 51 52 51 51 51 51 52 51 51 50 50 51 51 50 50 50 49 48 51 51 51 51 51 52 53 54 54 54 54 55 56 58 58 59 61 62 62 61 60 61 61 61 61 62 60 59 58 58 59 59 60 60
56 55 54 54 54 54 53 52 53 52 51 51 52 52 52 52 53 51 51 51 50 50 50 49 49 50 49 48 48 48 50 50 50 51 51 53 54 55 53 53 53 55 56 56 57 58 60 60 61 61 61 61 61 61 62 62 60 58 58 59 60 58 59
56 54 54 53 54 53 53 52 53 53 52 52 52 52 51 51 51 50 50 50 50 49 50 50 50 49 50 49 49 50 51 52 53 52 52 53 54 54 54 53 54 54 55 54 56 57 58 59 60 60 60 61 61 61 61 61 61 60 60 59 59 59 59
55 54 54 53 53 53 53 53 52 52 51 51 51 51 51 52 52 51 51 50 49 49 49 49 49 49 49 49 51 52 53 53 53 53 53 53 54 54 54 54 55 54 54 54 54 55 56 57 59 59 59 60 59 60 62 61 61 61 59 59 59 58 59
54 54 53 53 53 53 53 52 51 52 51 50 50 51 51 50 52 50 49 49 49 49 49 49 49 49 50 52 54 54 55 55 55 55 55 54 54 55 54 54 55 55 55 54 54 55 56 56 57 58 58 59 60 61 59 60 60 60 59 59 59 57 58
54 54 54 53 53 52 52 51 52 51 51 51 50 50 50 50 49 50 49 49 49 49 49 50 50 51 51 52 53 53 53 53 54 54 54 55 55 55 54 54 54 55 54 54 54 54 55 55 55 56 57 58 60 59 58 58 59 58 58 58 59 59 58
54 54 54 53 53 52 52 51 51 50 51 50 50 50 50 50 48 49 48 49 49 49 48 48 49 49 50 51 51 51 52 52 53 53 54 54 54 54 54 54 54 54 54 55 55 55 55 54 54 53 55 56 57 58 58 58 57 57 57 58 58 57 57
54 54 54 53 52 52 51 50 49 49 49 49 50 49 49 48 48 48 47 48 48 48 49 50 51 52 52 53 54 53 53 53 53 53 53 53 54 54 54 54 54 55 55 54 51 51 51 51 51 51 51 52 52 52 53 55 56 57 56 56 56 57 56
54 53 53 52 51 50 50 49 49 48 48 48 48 48 47 48 48 47 47 47 47 48 48 48 50 47 46 49 50 51 51 51 52 51 51 52 52 53 53 53 54 53 51 50 49 48 47 47 48 50 51 52 51 50 51 51 53 55 56 56 55 55 55
53 53 52 51 49 50 50 50 48 47 48 47 47 46 48 46 46 47 47 46 45 46 47 49 47 44 43 44 46 47 48 48 49 49 50 50 50 51 52 53 53 53 52 51 52 48 45 45 45 46 47 48 49 50 50 49 50 52 53 56 57 56 55
52 52 51 50 50 50 49 48 47 46 46 47 46 47 47 45 46 45 45 45 44 45 45 48 45 44 44 43 44 46 47 47 47 47 48 48 49 49 50 51 52 52 52 52 52 52 50 48 46 45 45 44 44 44 45 49 51 50 52 53 54 55 56
52 51 51 51 50 50 48 47 46 46 46 45 46 46 45 45 45 44 44 43 42 44 44 46 44 44 44 43 44 45 47 46 45 46 46 46 47 47 48 48 49 50 52 51 52 52 51 51 48 47 47 46 46 45 44 43 44 51 54 53 53 54 56
51 50 50 50 49 48 46 45 44 44 45 46 45 44 44 45 43 43 43 43 43 43 44 46 44 44 44 43 43 43 47 47 47 47 47 47 46 46 47 47 47 48 50 51 51 51 51 51 51 51 51 53 53 52 48 46 44 42 46 52 53 53 56
50 49 48 48 46 45 45 43 44 44 44 43 42 44 43 42 42 43 41 41 42 43 46 45 43 42 42 41 41 41 44 45 46 46 47 47 47 47 47 47 48 47 48 49 50 50 50 50 50 49 49 50 51 51 53 54 55 53 48 49 52 54 56
50 48 47 45 45 45 44 44 43 44 43 41 42 40 40 42 41 40 41 41 41 42 44 43 42 42 41 41 41 43 44 45 44 44 44 45 46 47 48 48 47 47 48 48 47 45 46 49 49 48 48 48 48 50 51 51 50 50 53 54 53 54 55
50 48 47 46 44 44 43 44 43 41 39 39 39 39 40 41 41 40 40 40 41 42 42 43 42 42 42 42 41 44 43 43 43 42 43 44 45 46 46 47 46 46 46 47 46 43 43 44 47 47 47 46 47 48 48 51 49 48 47 46 46 48 48
48 47 45 45 44 43 42 41 42 41 40 38 39 41 41 40 39 40 40 40 42 43 43 44 43 42 42 41 42 42 42 41 41 42 42 44 44 45 45 47 48 47 46 47 45 43 42 44 46 46 46 46 45 45 46 49 51 53 49 49 47 45 45
48 46 45 43 43 42 43 43 42 41 40 38 39 39 41 39 38 39 40 42 46 45 44 45 43 42 42 41 42 42 41 41 40 41 42 42 43 43 44 45 46 46 46 46 43 42 42 44 46 46 46 46 44 44 45 48 49 51 53 54 54 52 48
46 45 44 43 42 44 43 41 40 40 38 39 38 38 39 38 37 38 39 41 42 43 43 44 45 43 42 42 42 42 42 41 40 40 41 41 41 42 43 44 45 43 41 41 41 41 41 42 44 46 46 45 44 44 47 48 48 49 49 48 49 51 52
47 45 44 44 44 44 43 41 39 38 38 37 38 38 36 37 38 38 39 40 41 42 43 43 43 42 42 42 41 41 41 41 41 41 40 40 40 40 41 42 44 43 42 42 41 41 41 41 42 45 46 45 46 47 46 46 47 45 47 47 47 48 50
48 48 45 45 45 43 41 40 40 39 39 37 37 36 35 36 36 37 38 39 40 41 43 44 42 42 42 41 41 40 40 41 41 40 39 39 39 39 40 41 42 43 41 41 41 41 41 41 40 43 45 43 43 42 45 46 46 46 46 45 45 46 48
48 49 46 44 42 41 41 40 39 38 38 37 36 35 35 35 35 36 37 38 38 39 40 41 42 41 41 40 40 40 39 39 39 40 38 37 38 39 40 41 42 41 40 40 40 40 40 40 40 43 41 41 41 41 42 44 44 43 44 44 44 44 46
47 45 43 42 42 40 40 39 40 40 37 35 35 34 34 36 34 34 36 38 38 38 38 39 40 40 40 39 39 39 38 38 38 39 39 38 38 39 39 40 40 39 39 39 39 39 40 40 42 41 40 40 40 40 43 43 42 42 41 42 42 43 45

ECMWFFLT1_sfc_temp_015.txt.gz
Temp
55 55 52 52 50 52 51 54 54 53 51 54 54 54 53 55 53 53 53 54 55 57 57 56 55 55 56 57 57 57 57 57 57 56 56 58 57 59 61 61 61 62 63 62 61 58 57 55 59 63 64 63 61 63 64 65 65 64 63 63 65 64 64
54 53 52 55 53 53 52 53 54 52 51 51 54 55 52 53 56 53 51 52 53 55 57 55 54 55 54 54 55 56 55 55 56 56 55 55 56 57 58 59 60 60 61 61 62 61 58 56 57 58 60 63 62 62 63 64 66 65 65 64 65 66 65
53 52 52 52 52 51 52 52 51 52 51 52 51 52 54 52 52 53 52 52 52 55 55 53 53 53 53 53 53 54 54 54 54 55 54 54 55 56 57 57 56 57 59 60 60 60 60 59 56 57 59 58 58 61 61 62 63 65 66 65 64 66 66
52 53 52 50 51 51 51 51 51 50 51 51 50 51 52 52 53 55 52 52 53 55 53 52 52 52 52 52 52 52 52 52 52 53 54 54 54 54 54 55 55 56 56 55 57 58 58 57 57 58 59 60 60 60 64 65 65 67 68 65 65 66 67
54 54 54 53 52 52 51 52 51 51 51 51 50 51 52 51 52 50 52 51 53 51 52 51 52 52 52 52 52 52 51 50 51 52 50 51 51 52 53 54 54 55 56 56 57 57 57 57 57 57 58 61 62 62 65 63 65 65 66 66 67 67 68
54 55 54 53 52 52 51 51 50 50 50 53 51 52 50 50 52 50 51 52 51 52 50 51 51 50 51 51 51 50 50 50 50 50 50 49 49 51 51 52 53 53 54 55 57 57 58 58 58 55 57 58 56 58 61 62 61 63 66 66 67 68 68
54 55 54 54 53 53 52 52 52 52 51 51 51 51 52 51 51 52 52 51 51 51 52 51 50 51 50 51 50 49 49 49 49 49 49 49 49 50 50 50 51 51 52 54 55 56 56 56 55 55 55 57 57 57 60 59 61 61 63 66 68 68 67
55 55 55 54 53 53 51 53 52 51 51 51 52 52 51 51 50 49 50 50 49 49 50 50 52 50 51 51 51 50 49 49 49 49 48 48 50 49 48 49 50 51 51 52 54 54 55 55 55 56 55 53 55 56 56 57 58 59 62 65 66 66 66
56 55 54 54 53 54 53 53 53 51 52 50 49 50 50 50 50 50 50 48 49 50 50 50 49 49 49 50 50 49 48 52 49 48 48 48 49 48 49 49 49 49 50 52 53 53 54 55 55 56 56 55 52 52 55 55 56 57 61 62 64 66 67
54 54 55 54 53 53 53 53 52 52 50 50 51 50 50 48 48 48 49 49 48 48 49 49 50 49 49 48 48 48 48 48 49 48 48 48 48 48 48 49 49 49 49 50 51 53 53 54 54 55 56 55 55 52 52 53 56 55 56 59 59 59 64
56 56 55 55 53 53 52 52 51 51 51 52 52 53 50 49 49 52 47 49 47 49 49 48 48 48 48 48 47 47 47 47 48 47 48 49 47 48 49 48 48 48 48 49 50 50 51 52 52 53 54 56 56 54 54 52 54 59 58 56 59 60 61
55 55 55 55 53 53 53 52 52 52 50 50 53 51 49 49 48 47 47 48 48 48 47 47 48 48 48 48 48 48 47 47 47 47 46 48 48 49 47 47 46 47 48 48 48 49 50 51 52 51 52 53 54 54 54 54 52 58 61 58 57 59 59
55 55 54 54 53 53 53 53 52 50 51 52 51 50 49 49 48 47 47 48 48 47 47 47 46 46 45 46 45 47 46 45 47 46 46 46 48 48 47 46 46 47 47 48 47 48 49 49 50 50 51 51 52 53 54 53 52 54 60 59 60 60 61
54 54 53 53 54 53 53 53 52 53 51 51 50 49 49 48 47 48 47 48 48 47 47 47 46 46 45 46 45 45 44 45 46 46 46 46 46 46 46 46 46 47 47 47 47 48 48 48 48 50 50 50 51 53 53 53 51 52 57 60 58 58 59
55 54 53 53 53 52 52 52 52 51 52 51 50 50 49 48 47 47 47 47 47 46 46 45 44 44 45 45 44 46 46 44 44 45 44 45 46 47 46 45 46 47 47 47 46 47 48 48 47 47 48 49 49 51 54 53 52 51 51 56 56 58 58
54 53 53 52 53 52 52 51 51 52 51 50 49 50 50 49 48 46 46 46 45 46 45 44 44 45 44 44 44 44 45 44 44 45 45 46 46 46 46 46 47 47 48 46 46 47 47 47 47 47 47 48 48 49 51 54 53 51 52 53 56 55 56
53 53 53 53 52 52 51 51 51 51 51 49 49 49 49 48 47 46 46 45 45 45 45 44 44 44 45 44 44 44 43 43 43 44 45 46 46 46 47 46 47 47 47 46 46 47 47 48 48 49 48 48 48 48 49 52 54 51 50 49 52 53 56
53 53 53 52 52 51 51 51 51 51 49 49 49 48 47 46 46 45 46 44 44 43 43 43 44 44 43 43 43 43 43 43 44 44 45 46 48 47 47 47 47 47 46 47 47 47 48 48 51 51 50 50 48 48 49 49 50 51 49 48 49 52 54
53 53 53 52 51 51 51 51 50 50 50 50 48 48 48 46 47 45 44 44 44 43 42 42 42 43 43 43 43 43 43 43 44 44 45 45 46 46 47 47 48 49 50 50 50 50 49 49 51 50 50 51 51 50 47 45 46 47 48 48 49 48 51
54 54 53 52 51 51 51 50 50 49 49 49 48 46 45 46 45 45 44 44 44 44 43 42 42 42 42 42 42 42 42 42 43 43 44 45 45 45 46 47 48 49 50 51 51 51 51 50 50 50 51 51 52 51 49 47 46 45 45 45 46 47 47
54 54 52 51 51 50 50 50 50 49 48 47 47 46 45 46 45 44 44 44 43 43 42 42 41 40 41 41 42 42 42 43 44 43 44 44 45 46 46 47 47 48 49 49 50 52 52 51 51 50 51 50 50 49 48 48 47 46 44 44 44 44 45
51 51 51 51 50 50 50 49 49 48 48 47 47 46 46 45 44 42 41 42 43 42 42 43 42 43 42 41 41 41 42 43 43 43 43 43 44 45 45 45 46 46 49 51 49 48 48 48 48 48 48 48 47 47 46 47 47 47 45 45 45 45 44
49 50 50 51 51 50 49 48 48 47 47 46 46 45 44 43 43 42 42 40 40 42 42 41 46 46 45 43 41 42 43 42 42 42 42 42 43 43 44 44 46 49 49 48 47 46 45 45 46 47 48 49 48 46 45 45 44 45 45 44 44 44 43
49 49 50 49 49 50 49 49 48 46 45 45 45 45 43 41 40 41 42 41 39 40 41 43 45 41 41 42 42 41 41 41 41 41 41 41 41 42 43 43 43 46 48 47 47 45 44 44 44 43 44 45 46 46 46 44 44 44 43 43 43 43 43
51 51 51 51 50 50 49 48 47 45 44 44 43 42 41 41 41 41 40 39 38 40 41 45 42 42 41 41 43 42 40 40 40 40 40 40 41 41 41 42 43 44 45 45 45 45 45 44 43 43 43 42 42 42 43 45 45 44 44 43 42 43 43
52 51 51 50 50 50 49 48 46 44 45 44 41 41 41 42 40 40 40 39 38 39 40 42 42 41 41 41 41 42 40 40 40 40 40 40 40 41 41 42 42 42 43 47 48 46 45 45 44 44 43 43 43 43 41 41 42 45 47 45 44 43 44
51 50 50 49 48 48 47 46 45 45 44 42 40 40 41 41 40 39 38 38 38 37 37 41 40 41 41 40 40 41 40 40 40 40 41 41 41 41 41 41 41 42 42 43 43 43 43 43 43 43 44 44 44 45 43 42 41 41 43 46 46 44 46
49 48 48 49 48 48 47 45 44 44 44 42 41 41 40 40 39 40 39 37 36 36 39 42 40 40 40 40 41 41 40 40 40 40 40 40 40 41 41 41 41 41 41 41 42 43 42 42 42 42 42 42 43 44 44 45 45 46 45 45 46 47 47
48 48 49 48 48 47 44 45 43 42 40 38 39 39 37 39 39 37 37 36 36 36 37 39 39 39 40 40 41 41 39 39 39 39 39 40 40 40 40 40 40 40 41 40 42 41 42 43 42 41 40 41 41 42 43 45 45 46 47 48 48 48 48
49 49 49 48 46 44 42 41 42 42 41 39 39 39 39 38 38 37 36 36 35 35 35 38 39 40 40 40 40 39 39 39 38 38 38 39 39 40 40 40 40 39 40 40 41 40 40 41 40 40 39 39 40 40 41 43 44 43 43 43 43 43 44
48 48 47 46 44 42 42 42 42 42 42 40 40 40 40 39 37 37 36 35 35 35 35 38 40 40 40 40 40 39 38 37 37 37 37 38 38 39 40 43 44 42 41 41 41 39 39 40 39 39 39 38 38 39 40 42 44 44 44 43 42 42 42
48 47 46 44 43 42 43 43 41 41 41 41 42 40 40 39 37 36 36 36 42 39 35 37 40 39 40 40 40 39 38 37 36 36 36 36 37 38 39 41 43 43 42 42 40 40 39 40 39 39 39 38 37 38 40 42 42 42 43 44 44 44 43
46 45 43 42 42 42 42 41 40 39 38 40 40 38 39 38 37 37 35 36 36 36 35 35 38 39 40 40 40 39 38 36 35 35 36 37 37 38 40 40 41 40 39 39 39 38 38 39 39 40 39 38 37 37 41 42 42 42 42 43 43 44 45
44 43 43 43 43 42 42 41 39 39 37 36 36 36 36 36 35 35 33 34 33 32 35 35 37 39 39 40 39 39 36 36 36 36 37 37 37 37 37 38 39 40 39 39 39 38 39 38 39 39 39 38 39 40 41 41 42 41 42 42 42 43 44
45 44 44 44 42 40 38 39 40 38 35 34 35 35 34 34 33 32 30 30 33 32 35 40 36 39 39 39 39 39 37 37 38 38 37 37 37 37 37 38 38 39 38 38 38 38 38 38 38 39 39 39 38 38 39 41 41 41 41 41 41 42 43
44 45 44 42 41 38 36 37 35 35 34 33 35 34 32 30 31 31 29 30 30 31 32 35 39 38 39 39 38 38 38 37 37 39 37 36 36 37 38 38 39 39 38 38 38 37 38 37 38 38 38 37 37 37 38 39 39 38 39 39 39 39 41
45 44 43 42 41 39 36 35 35 36 34 35 35 33 30 30 30 31 31 30 32 31 32 31 35 38 38 38 38 38 37 37 37 37 37 36 37 37 37 37 38 38 37 37 37 37 37 37 37 37 37 37 37 37 38 37 37 37 37 37 37 38 39

ECMWFFLT1_sfc_temp_021.txt.gz
Temp
68 67 65 66 66 67 67 66 67 67 68 69 68 68 69 68 68 67 67 67 67 68 68 67 66 66 66 66 65 65 65 65 64 62 62 63 62 62 63 64 64 65 65 65 65 60 59 58 61 67 68 69 70 71 73 74 74 74 73 74 76 77 76
66 67 67 67 66 66 66 66 67 67 67 67 69 68 68 68 68 67 67 67 66 67 68 67 66 66 65 64 64 64 63 63 63 62 62 62 62 60 62 63 64 64 66 65 66 65 61 59 60 61 63 68 69 70 70 71 74 74 74 75 76 77 77
65 65 67 66 65 65 66 65 66 67 67 67 66 68 67 68 67 68 67 66 65 66 66 66 65 64 63 63 63 63 63 62 62 62 61 61 62 62 62 62 62 62 64 64 64 64 64 63 58 59 62 60 61 65 68 68 71 72 73 74 73 76 77
64 65 65 64 65 65 65 65 66 67 67 67 66 66 66 67 66 67 66 66 66 66 66 66 65 65 64 63 63 63 62 62 62 61 60 60 61 61 61 62 61 59 58 58 59 61 61 61 61 62 63 65 63 61 67 70 70 73 75 75 74 74 74
65 65 66 65 65 65 65 65 66 66 66 66 66 66 65 66 66 66 65 65 65 65 65 65 65 65 65 65 64 63 62 62 62 61 61 59 59 60 60 61 61 61 60 59 59 60 60 60 58 58 61 66 66 67 71 70 73 73 75 76 78 77 77
66 66 67 67 66 66 66 65 65 66 66 65 65 65 65 65 66 65 65 65 65 65 65 65 64 65 65 64 64 63 62 62 62 61 60 59 59 59 59 60 61 62 61 61 60 59 60 60 59 58 63 64 59 62 68 70 70 75 76 77 79 80 79
66 66 67 68 66 68 67 66 66 66 66 66 66 66 66 66 67 66 66 66 66 65 65 64 64 65 64 65 64 63 62 62 62 61 61 60 60 59 61 60 60 61 61 61 60 60 59 58 58 57 57 60 61 62 67 68 71 70 74 78 79 80 79
67 67 67 68 67 66 66 66 66 67 67 68 67 67 66 66 66 66 65 65 65 65 65 64 64 64 64 65 64 62 63 63 62 62 61 60 59 59 59 60 60 60 61 62 62 61 60 58 58 58 56 54 57 61 61 67 69 69 70 74 77 78 79
67 67 67 67 67 66 66 66 66 66 67 67 67 67 65 66 65 65 65 65 65 65 65 64 64 65 64 64 64 63 62 63 61 61 61 61 59 59 59 59 60 60 60 61 62 61 61 60 59 59 58 57 55 55 60 61 64 66 71 70 75 77 77
65 65 66 65 65 65 66 66 67 66 66 66 65 65 65 66 66 65 65 64 64 64 64 64 64 65 64 64 63 62 62 63 62 61 61 61 61 61 60 59 59 60 60 60 61 61 60 60 61 60 60 58 57 54 54 56 59 61 67 71 68 74 77
65 66 66 66 66 65 64 65 65 65 65 65 65 64 65 64 64 65 65 64 64 64 64 64 65 64 64 64 63 63 63 62 61 62 61 61 60 61 60 60 60 60 60 60 60 60 60 60 60 60 60 60 59 55 55 53 55 60 61 66 68 69 74
65 66 66 67 66 65 64 65 65 65 65 64 65 64 64 64 64 64 65 64 64 64 64 64 64 64 64 63 62 62 61 62 62 60 61 60 60 60 59 59 60 60 60 59 60 60 60 60 60 61 61 61 60 57 55 54 51 59 63 62 67 70 69
66 66 66 66 65 65 65 65 65 64 64 65 65 65 65 65 64 64 64 64 64 64 64 63 64 63 63 63 62 62 61 61 61 60 61 61 61 60 59 58 59 59 60 60 60 59 59 60 60 60 60 60 60 59 57 56 53 54 61 62 64 66 68
64 66 65 65 65 66 66 65 65 65 65 64 65 64 65 65 66 65 65 65 65 63 63 62 63 63 63 62 62 61 61 61 61 61 60 59 60 59 59 59 59 59 59 58 59 60 60 60 60 60 60 60 59 60 59 56 54 55 59 63 63 64 66
65 66 65 65 64 66 66 65 65 65 64 64 65 65 66 65 65 65 65 65 64 64 63 63 62 63 62 60 60 60 60 60 60 59 59 59 59 59 58 58 59 59 60 59 58 60 61 60 60 60 60 59 60 59 60 56 56 55 54 60 60 64 64
65 64 64 65 65 65 65 65 65 64 64 64 64 66 66 65 65 66 65 64 64 63 63 63 62 62 62 61 60 59 59 60 59 58 58 58 59 59 58 57 58 58 58 57 57 58 59 59 60 60 59 59 58 58 58 57 55 53 53 55 59 59 61
64 63 63 64 64 65 65 65 64 64 65 65 64 65 66 66 65 65 64 64 64 63 63 62 62 63 62 62 61 60 60 59 59 58 58 58 59 58 57 57 57 58 58 56 57 57 59 59 58 59 58 59 58 57 57 56 56 53 53 52 56 59 61
64 64 63 64 64 64 65 65 64 64 64 64 64 64 64 65 65 65 63 64 64 63 63 63 62 61 61 61 61 60 59 59 58 58 58 57 56 57 57 57 57 57 57 55 56 56 58 56 58 58 58 59 59 58 58 57 56 55 53 52 54 58 59
64 64 64 64 64 65 65 64 64 63 64 64 64 64 64 64 65 65 65 65 65 64 64 63 63 62 61 60 59 59 59 58 58 58 58 57 58 57 56 57 57 57 56 55 55 55 56 55 57 56 57 58 59 59 57 57 56 55 54 53 54 54 57
64 64 64 64 64 65 65 64 64 63 62 61 60 61 63 64 64 65 65 64 64 63 63 63 62 61 60 60 59 59 57 57 57 57 57 57 57 57 56 56 56 56 55 56 55 55 55 55 55 55 55 55 57 56 56 56 57 55 53 53 54 55 55
66 65 65 65 65 65 65 63 62 62 61 60 58 60 61 62 63 65 64 64 64 63 62 62 61 61 60 59 59 58 57 56 56 56 55 56 56 56 56 56 56 56 56 56 55 55 55 54 55 54 56 55 55 55 54 55 55 55 54 54 54 54 55
65 65 65 64 62 62 60 60 60 60 59 59 59 59 58 59 58 61 63 62 61 60 61 60 60 60 59 58 58 57 56 56 55 54 54 55 55 55 55 55 56 56 55 52 48 48 49 49 52 53 54 55 55 55 54 54 54 54 54 53 53 55 54
64 64 64 63 62 61 60 59 59 59 58 57 56 55 55 55 56 54 55 56 54 55 57 59 53 49 51 58 58 57 55 55 55 54 53 53 54 54 55 55 55 51 48 47 46 45 44 44 45 50 53 54 53 53 53 52 53 53 53 52 52 53 52
62 63 63 63 61 61 61 60 60 60 59 57 55 55 55 55 54 54 55 56 55 56 56 55 44 43 44 46 55 55 55 54 54 53 53 53 53 53 54 56 55 53 51 49 50 44 42 42 43 42 43 44 47 51 51 51 52 53 52 51 53 53 52
61 61 62 62 61 62 61 61 61 61 58 55 56 55 54 55 56 56 55 56 55 55 55 47 42 42 42 42 47 55 54 54 53 53 53 53 53 53 53 53 53 53 53 53 53 53 49 44 42 42 41 41 41 41 43 49 50 50 51 51 51 52 52
61 61 61 61 62 61 61 61 61 60 58 57 56 55 55 55 55 55 55 56 55 55 55 43 42 41 41 40 41 48 55 53 53 52 52 52 52 52 51 51 51 51 52 48 50 52 52 53 46 43 42 41 41 41 40 39 41 48 51 50 50 50 51
60 60 60 60 61 61 60 60 60 60 59 57 55 55 56 55 54 54 55 55 55 55 55 44 41 41 40 39 38 44 53 52 51 51 51 51 50 50 50 50 50 50 51 51 52 51 51 51 51 51 51 52 52 50 43 40 39 39 43 49 50 49 52
59 59 60 59 59 60 60 60 60 59 58 56 54 54 56 55 55 55 55 55 54 54 53 41 40 39 39 39 37 42 52 50 51 51 51 50 50 49 50 49 49 49 49 50 50 48 49 48 48 48 49 49 51 51 53 53 53 52 50 49 49 49 51
59 59 59 59 59 59 59 59 58 58 57 56 55 54 54 54 53 54 55 55 54 52 48 39 39 39 39 39 38 51 52 51 50 50 50 50 50 50 50 49 49 48 49 48 46 41 42 47 47 46 45 47 48 49 50 49 46 46 49 51 52 52 52
58 58 58 58 58 58 58 58 58 58 56 55 55 54 52 52 53 52 52 53 53 52 50 42 39 39 39 37 43 53 51 52 51 50 50 50 50 50 49 49 49 48 48 48 44 39 39 40 45 44 44 43 44 45 46 49 45 42 41 41 42 42 41
58 58 58 57 57 57 58 59 58 56 56 54 52 52 51 51 51 51 51 52 54 52 51 44 38 39 39 38 43 51 52 51 50 50 50 50 50 50 49 45 45 47 47 48 42 39 38 41 44 44 43 42 42 42 44 46 47 47 43 41 40 40 40
58 58 58 57 57 57 57 57 56 54 54 52 50 49 47 45 45 48 49 49 48 50 49 45 38 38 38 38 44 52 52 52 49 49 49 49 49 49 49 47 44 44 45 44 39 38 38 40 43 43 42 41 39 40 42 44 44 44 45 46 47 47 45
57 57 57 57 57 57 56 53 51 50 48 47 45 45 45 46 46 45 46 48 48 49 48 48 46 37 38 38 39 48 50 49 48 48 48 48 46 48 48 48 47 41 38 38 37 37 37 37 41 42 42 40 39 38 43 44 44 44 43 44 44 45 45
56 57 57 57 56 53 52 51 48 46 44 43 42 42 42 44 44 43 44 46 47 47 47 48 47 38 38 38 38 39 49 49 49 48 48 47 47 46 48 48 49 44 39 38 37 37 37 37 38 40 40 40 40 41 41 41 41 40 41 42 42 42 43
57 56 57 55 50 48 49 49 47 45 45 44 44 43 43 43 42 42 43 45 47 48 45 43 47 41 38 38 38 37 45 49 47 46 45 46 46 47 46 45 46 43 38 37 37 37 37 37 37 39 39 37 37 36 39 40 40 40 40 40 40 40 41
55 54 52 51 48 46 46 45 44 44 45 46 45 44 44 45 45 43 44 46 46 45 44 45 39 44 41 38 37 37 37 41 39 43 45 44 45 45 45 44 44 41 37 37 37 37 37 36 37 39 37 36 36 36 37 39 39 38 38 38 38 38 39
54 52 49 48 46 45 43 44 44 45 46 45 43 44 45 45 44 43 42 44 45 45 43 44 42 38 41 38 37 37 37 36 37 43 44 43 44 43 43 43 42 38 37 36 36 36 36 36 38 37 36 36 36 36 38 38 38 37 37 37 36 37 38

ECMWFFLT1_sfc_temp_024.txt.gz
Temp
75 73 73 74 74 74 73 72 73 73 74 75 74 75 75 74 74 73 73 73 74 74 74 74 72 73 72 72 71 72 72 72 71 70 69 70 67 66 68 66 66 65 65 65 64 60 60 59 60 65 68 66 69 72 73 73 77 78 78 78 81 82 82
75 75 75 75 74 74 72 73 73 74 73 74 75 74 74 75 74 73 73 73 73 73 75 74 73 73 71 70 70 70 70 70 70 70 70 69 68 66 67 66 68 69 68 67 67 66 62 59 60 61 61 66 67 68 70 72 72 76 76 76 77 78 79
75 75 76 73 73 73 72 71 72 73 73 73 73 74 74 75 74 74 73 72 72 73 73 72 71 70 70 69 69 69 69 68 69 69 68 69 70 69 70 68 67 68 69 68 67 67 67 67 62 60 61 60 59 64 68 69 71 71 72 73 74 77 75
73 73 73 71 73 72 72 71 72 73 73 73 73 72 73 74 73 73 72 72 72 72 72 72 71 71 70 69 69 68 68 68 68 67 67 67 68 68 68 69 68 67 66 65 65 66 66 65 66 67 68 69 66 63 65 68 70 71 71 71 73 75 76
73 73 72 71 72 71 72 72 73 73 73 73 72 72 72 72 72 72 72 72 72 71 71 72 72 72 71 71 70 69 68 68 68 68 67 66 66 67 66 68 68 68 67 66 67 66 65 66 65 65 68 71 71 71 73 71 73 74 75 75 75 74 73
74 74 73 73 73 73 73 73 73 73 73 72 72 71 71 71 72 71 71 71 71 71 71 71 71 71 71 71 69 69 68 68 68 67 66 65 65 66 66 67 69 69 67 67 66 65 66 66 65 64 69 72 66 69 74 74 71 75 76 77 80 82 83
75 74 75 75 74 75 75 74 73 74 73 72 72 71 72 72 73 72 72 72 72 71 71 70 70 71 71 72 70 68 67 68 67 66 66 65 65 65 67 67 68 68 67 67 67 66 64 64 64 64 64 66 67 68 73 75 77 75 77 80 81 81 82
75 76 76 76 75 75 75 74 74 75 74 74 74 73 73 72 72 72 72 71 71 70 70 69 70 70 70 71 71 68 69 68 67 67 66 65 64 64 64 66 66 67 67 69 68 67 68 64 63 63 63 61 64 67 67 73 75 74 75 79 81 82 83
76 76 77 77 76 76 75 75 74 74 75 75 75 74 72 73 72 71 71 71 71 70 70 70 70 70 69 69 69 68 67 69 66 65 66 65 64 64 64 65 67 67 67 67 68 67 68 67 65 64 62 61 60 62 67 67 70 73 77 75 80 82 83
74 74 75 75 75 75 75 75 75 75 75 75 74 74 72 73 72 72 71 71 70 70 70 70 70 70 69 70 69 68 67 68 68 67 67 66 65 65 65 63 65 66 66 66 67 67 66 66 68 67 66 62 62 59 60 62 66 68 74 77 74 78 81
74 74 75 75 75 75 75 75 75 75 74 75 74 73 73 72 72 71 72 71 70 70 70 70 71 70 69 70 69 69 69 68 67 67 67 67 66 66 65 66 66 67 65 66 66 65 65 65 65 67 67 67 65 60 60 58 62 67 68 72 74 75 79
74 75 75 75 75 74 74 75 75 75 74 74 74 73 72 72 72 71 71 71 71 70 70 70 70 70 70 69 68 68 67 68 68 66 67 66 66 66 64 64 65 66 65 65 65 66 65 65 66 67 67 67 67 64 61 60 57 65 69 67 72 76 76
75 75 75 74 74 74 74 74 75 74 74 75 74 73 73 72 72 71 71 71 70 71 70 70 70 70 69 69 68 69 67 67 67 66 66 66 67 66 64 64 64 66 66 66 66 66 66 65 65 66 66 66 66 65 64 62 60 60 68 67 68 71 74
73 75 74 74 74 74 74 75 75 75 75 74 74 73 73 74 74 72 72 72 72 70 70 69 70 69 69 68 69 68 67 68 67 67 66 64 65 65 65 65 65 64 65 63 65 66 66 66 65 65 65 66 65 66 64 63 61 62 66 69 68 69 71
73 74 73 73 73 74 74 74 74 75 74 74 74 74 75 74 74 73 73 73 72 72 71 71 70 69 69 67 67 67 67 67 67 67 65 66 65 65 63 64 65 65 66 65 64 66 68 67 68 67 67 65 66 65 66 63 63 61 60 66 67 71 70
73 72 72 72 72 73 74 74 75 73 74 74 75 74 74 74 74 74 74 72 73 72 71 71 69 69 68 68 67 66 66 67 66 65 64 65 67 66 64 63 64 64 64 63 63 64 64 65 67 67 66 66 65 64 65 65 62 60 60 62 65 66 67
72 72 71 72 72 73 74 74 74 73 74 74 74 74 75 75 74 74 73 73 73 72 71 70 69 69 69 68 68 67 67 66 66 65 65 66 66 64 64 63 63 64 64 62 63 63 65 65 64 65 65 65 65 64 63 63 62 60 60 59 63 66 67
70 70 69 71 71 72 73 73 73 74 73 72 74 73 73 74 73 73 72 73 73 72 71 71 70 69 69 68 68 67 66 67 65 65 65 64 61 64 63 63 63 64 63 61 62 63 64 62 64 64 64 65 65 65 65 64 63 64 61 60 61 64 65
69 69 68 69 69 71 71 72 73 73 74 73 72 71 71 71 71 72 73 73 73 73 72 71 71 70 70 68 68 67 66 66 65 65 65 64 64 64 62 63 63 63 62 61 61 61 62 61 63 62 63 64 65 64 63 63 63 62 62 62 62 62 64
69 70 70 70 71 72 73 73 73 73 74 73 72 70 70 70 70 70 72 72 72 72 71 71 70 70 69 69 67 67 65 65 64 64 64 64 64 63 63 63 62 62 61 62 60 60 61 60 60 60 61 61 62 62 61 62 63 62 62 61 62 63 63
71 69 69 70 70 70 71 72 72 72 73 71 71 71 70 69 70 71 70 70 70 71 71 71 71 70 70 68 67 66 65 64 64 63 62 63 63 62 62 62 62 63 62 62 62 61 60 60 61 60 61 61 61 60 60 61 61 61 60 60 61 61 63
71 71 71 71 70 70 70 70 70 70 70 70 70 71 71 70 70 69 71 70 69 69 67 65 66 64 64 65 67 65 65 64 63 63 62 62 62 62 62 62 62 62 62 56 50 50 51 51 56 57 59 60 60 59 59 60 60 61 60 60 60 62 62
71 72 71 71 72 71 72 71 70 70 70 70 70 70 71 71 70 69 68 67 68 65 62 63 59 53 56 66 66 65 63 63 63 62 61 61 61 61 61 62 61 56 52 50 49 46 44 44 46 51 56 58 58 58 58 58 58 59 59 59 59 60 59
71 71 71 71 71 72 72 70 69 69 69 69 67 68 69 70 70 69 67 67 67 64 62 61 48 47 48 52 62 62 61 61 62 61 60 60 60 60 61 63 62 59 55 51 53 45 44 43 43 43 43 44 48 53 54 55 56 57 57 58 59 59 59
71 70 70 71 72 72 71 71 70 69 68 68 68 68 66 68 67 68 68 68 66 63 64 48 44 45 46 47 52 62 61 61 59 60 60 60 60 60 60 60 60 60 60 60 60 59 51 44 42 42 41 41 42 41 43 50 52 54 55 56 57 58 58
70 70 70 70 71 70 70 70 70 69 68 68 68 67 68 67 68 68 67 66 64 64 61 44 43 44 43 43 45 54 62 60 59 59 59 59 59 59 59 58 58 58 60 53 55 57 58 58 47 41 42 42 42 41 41 39 41 49 53 53 54 54 57
68 69 69 69 69 69 69 69 68 69 69 69 67 67 67 66 67 67 66 65 63 62 56 44 42 42 42 42 41 49 61 58 58 58 58 58 58 58 58 58 57 58 59 59 59 58 58 58 58 57 55 55 56 51 42 40 40 40 44 50 51 51 54
67 67 68 68 68 68 68 68 68 68 68 68 67 66 66 66 66 66 65 64 62 59 52 41 41 41 41 41 39 45 59 57 57 58 58 57 57 57 57 56 56 56 57 57 58 55 56 55 55 54 54 54 55 56 57 57 55 53 52 51 52 53 54
66 67 67 67 66 66 66 66 66 68 68 68 68 68 67 67 65 64 63 62 59 54 48 40 40 41 40 40 40 56 58 57 57 58 58 58 58 58 58 58 57 56 57 56 51 42 45 52 52 51 51 52 53 54 55 52 49 49 53 56 56 55 55
65 66 66 66 66 65 65 66 66 68 67 67 66 66 66 66 65 62 60 58 54 49 47 42 40 40 40 38 44 59 58 59 59 58 57 58 58 58 57 58 57 56 55 56 48 40 39 40 50 50 50 50 51 52 52 54 49 45 43 42 41 41 41
65 65 65 65 65 65 66 66 66 67 66 65 65 65 65 64 63 59 56 54 51 48 47 43 40 40 40 39 45 57 59 59 58 58 58 58 59 59 58 50 51 54 53 54 44 38 38 43 48 49 49 49 49 49 51 53 54 54 46 42 42 41 41
65 64 64 65 64 64 64 65 66 67 66 66 64 65 65 63 59 56 53 51 49 50 48 44 40 40 40 39 46 56 57 57 56 56 57 57 58 58 58 54 47 49 51 49 41 40 38 42 47 48 48 47 46 46 49 52 52 51 51 51 52 52 49
64 64 64 64 64 64 65 65 64 63 63 64 64 63 62 59 53 51 51 50 49 49 48 48 45 39 40 39 39 51 54 54 54 54 55 56 55 56 56 57 53 41 40 40 39 37 37 37 45 47 46 44 44 43 49 49 49 49 48 48 48 49 49
64 64 64 63 64 65 65 64 62 60 59 60 60 58 54 52 51 50 50 50 50 50 51 50 46 38 39 39 37 40 52 52 53 54 54 54 55 54 55 56 57 49 39 38 37 37 37 37 38 44 45 44 44 44 43 44 44 41 44 44 44 45 45
63 62 62 62 62 62 63 63 60 57 57 56 54 51 49 48 48 48 50 51 51 51 51 48 49 39 38 38 38 37 47 53 51 51 51 53 54 54 54 55 56 48 38 38 36 37 37 37 37 43 43 39 38 37 41 43 43 43 42 42 43 43 44
60 60 60 61 60 59 60 59 57 56 53 51 49 48 47 47 47 46 47 48 49 49 49 47 43 46 38 38 37 37 37 44 41 47 50 50 51 53 54 53 53 42 36 37 37 37 37 37 38 42 38 37 37 37 38 41 41 40 40 41 41 41 42
60 60 60 60 59 58 56 55 54 52 50 49 48 47 47 48 48 47 47 48 50 52 52 52 43 40 44 36 38 37 36 35 37 47 49 49 51 51 52 52 48 38 38 37 37 37 37 37 40 37 36 36 36 37 40 40 39 39 39 39 39 40 41

ECMWFFLT1_sfc_temp_030.txt.gz
Temp
69 68 69 70 70 70 69 70 70 70 72 72 71 72 72 71 70 69 70 68 69 72 70 68 66 67 68 68 67 68 67 66 66 64 63 64 62 60 63 61 60 61 62 61 62 59 56 55 58 63 64 64 65 66 67 67 68 68 67 68 71 72 69
70 70 71 71 69 70 69 70 70 70 70 71 72 71 70 71 70 69 68 68 67 68 70 69 67 68 66 65 65 65 64 65 65 65 64 64 65 63 63 61 62 61 61 60 60 60 58 55 55 58 59 63 64 64 64 66 67 67 68 69 69 70 68
69 70 70 69 68 69 69 69 69 69 68 68 70 70 69 71 70 69 68 68 67 68 68 68 67 66 65 65 65 64 65 64 64 64 63 63 64 64 64 64 63 63 62 61 61 60 61 60 56 57 59 59 58 60 63 64 65 66 67 68 68 70 70
69 69 68 67 68 68 67 68 68 69 69 68 68 69 69 69 68 68 68 68 69 68 68 69 66 67 66 66 65 65 65 64 63 63 63 63 63 62 63 62 61 62 61 60 60 61 61 60 59 60 62 63 61 60 62 64 65 66 67 67 68 69 70
70 70 68 68 68 68 67 67 68 68 68 68 68 68 67 68 67 68 69 68 68 68 67 68 68 68 67 67 65 65 65 65 64 64 63 61 62 62 61 62 62 63 62 61 61 61 60 59 59 58 61 66 66 66 67 63 66 66 67 68 70 69 69
70 70 69 68 68 68 68 67 67 67 67 67 67 67 67 68 67 67 67 66 66 66 67 67 67 67 66 66 66 65 64 63 63 62 61 60 61 61 61 64 63 64 62 62 62 61 61 60 60 57 61 64 59 61 67 64 62 67 69 69 70 71 72
70 70 70 69 69 69 69 68 68 68 67 66 67 66 67 68 68 68 69 67 67 67 67 67 67 68 68 67 66 64 64 64 65 63 62 62 61 62 63 61 62 62 61 63 62 62 61 60 57 56 56 58 60 62 65 68 70 66 67 71 73 74 73
70 70 70 70 70 69 69 69 69 69 68 68 68 68 69 68 68 68 68 67 67 67 67 67 68 67 66 68 66 65 64 64 64 63 62 62 62 62 61 61 63 61 61 62 61 62 63 61 60 58 56 53 54 57 58 66 69 69 69 71 73 74 74
71 71 71 71 70 71 70 70 69 70 70 69 69 69 68 68 68 68 68 67 67 67 66 67 67 66 67 66 64 64 64 67 63 63 62 62 62 61 61 62 62 61 62 62 63 61 61 61 61 61 58 57 53 51 56 57 61 64 70 68 73 75 75
71 70 70 70 70 71 72 71 70 71 72 70 70 69 68 68 68 67 67 67 66 66 66 66 67 66 65 66 65 64 63 65 64 64 64 63 62 63 61 63 62 61 61 62 61 62 61 61 61 60 61 59 57 53 51 51 55 57 64 68 65 70 73
71 72 71 71 71 70 71 72 71 70 71 71 71 70 68 68 68 69 67 67 66 66 66 66 67 66 65 65 65 65 65 64 63 63 63 64 62 62 62 62 62 61 61 61 61 60 60 61 60 61 60 61 60 56 55 52 52 57 58 63 67 66 70
72 72 72 72 72 71 70 71 71 70 70 71 70 68 68 68 67 67 67 67 66 66 66 65 66 65 65 64 64 64 64 63 63 62 63 63 63 62 61 62 61 61 61 60 60 61 60 60 60 60 59 61 60 58 56 55 50 57 62 58 61 68 68
73 73 73 71 71 71 71 72 72 70 70 70 69 70 69 69 68 67 67 67 67 67 66 66 66 65 64 64 64 65 64 63 64 63 63 63 66 63 61 62 62 60 60 61 61 61 60 60 60 59 60 60 59 59 58 56 53 54 59 59 60 64 68
71 72 71 71 70 70 70 70 70 70 72 69 70 70 69 69 70 69 69 68 69 67 66 65 65 64 64 64 64 64 65 64 64 64 63 62 64 63 62 63 62 61 61 60 61 61 61 62 60 61 60 60 59 59 58 56 54 54 58 60 60 62 64
71 70 70 70 69 69 69 69 68 69 69 69 70 70 71 70 70 70 69 70 69 69 68 67 66 65 65 64 63 65 65 64 63 64 62 63 62 64 62 62 64 62 63 62 60 62 62 62 63 63 63 62 61 60 60 58 56 54 54 57 58 62 63
69 69 69 69 69 70 69 69 70 68 68 68 70 70 70 70 71 71 70 69 70 69 69 68 66 65 64 64 64 64 64 63 62 62 62 62 64 64 61 60 62 61 62 60 60 60 60 61 62 62 60 60 59 59 60 60 56 54 54 55 58 60 60
67 66 65 65 67 68 68 69 69 68 68 68 69 69 70 71 71 70 69 70 70 70 69 68 68 67 67 66 65 65 64 63 63 62 63 63 64 63 61 60 60 60 60 58 59 59 60 61 60 61 60 60 59 59 59 59 58 55 55 54 56 59 61
66 66 66 66 67 67 67 67 67 68 68 68 68 68 70 71 70 70 69 70 70 70 69 70 69 67 66 65 65 65 64 64 63 63 63 63 63 62 61 60 61 61 59 58 58 58 60 60 61 58 58 59 59 58 59 57 57 58 55 54 55 58 59
64 62 62 62 61 61 62 64 67 68 67 67 67 66 67 65 64 68 69 71 71 70 71 70 70 69 68 67 66 65 64 64 63 64 63 63 64 62 61 61 61 61 59 58 57 59 59 59 59 57 57 58 59 57 56 56 56 56 56 55 55 55 56
64 63 61 61 60 61 61 61 61 64 66 66 65 62 61 61 61 61 62 62 66 69 70 68 67 68 68 68 67 66 64 63 63 62 63 63 63 62 61 61 60 59 59 59 59 58 58 57 57 57 56 56 57 55 55 55 56 56 55 55 55 55 56
64 63 62 63 62 61 60 60 59 61 61 61 61 61 60 60 60 60 60 61 62 62 62 63 63 68 70 69 66 65 65 63 63 62 62 62 62 61 61 60 60 60 59 59 59 59 56 53 54 52 53 53 53 53 52 53 53 53 53 53 53 53 53
68 66 64 64 63 62 62 61 61 61 62 61 61 60 61 60 60 60 60 60 60 61 60 59 60 65 68 68 67 65 65 65 64 62 61 61 61 60 60 60 60 60 59 55 51 53 53 53 53 51 50 52 51 51 51 51 52 51 51 52 52 53 52
68 69 69 68 67 65 64 63 62 61 62 62 61 62 61 61 62 61 60 60 60 60 59 61 60 56 57 66 65 67 65 64 65 62 60 59 59 59 59 58 60 59 54 53 51 48 48 49 51 52 51 50 50 49 49 48 48 49 50 49 50 50 50
69 68 68 67 68 68 68 67 64 63 64 63 63 63 61 61 62 61 62 62 61 61 61 61 54 51 49 48 59 64 64 63 63 62 60 58 57 57 58 59 58 55 54 52 53 48 47 47 45 45 46 48 49 49 47 47 47 47 48 48 49 49 49
68 68 68 68 68 69 68 67 67 67 65 64 65 65 64 64 64 64 64 65 64 63 63 56 52 51 50 52 55 63 62 62 62 61 60 60 59 57 57 58 58 59 56 56 56 55 50 46 44 44 43 43 43 43 45 48 47 46 46 46 46 47 48
68 68 68 68 67 66 66 66 66 66 66 66 66 65 65 65 65 66 65 65 64 64 64 52 50 49 47 49 50 57 63 62 61 60 60 59 59 59 59 58 58 58 60 59 57 56 56 53 46 43 44 44 43 42 40 40 42 47 48 46 46 46 47
66 67 67 67 67 66 65 65 64 65 65 64 64 64 64 64 65 64 64 64 64 63 63 49 47 46 47 47 48 55 62 60 59 60 60 59 58 58 58 56 56 56 56 56 55 55 55 54 55 52 48 47 47 47 43 41 41 40 43 46 47 46 48
66 66 66 65 64 64 64 63 63 63 63 63 63 63 63 63 63 64 64 64 63 64 61 45 45 45 45 45 47 54 60 59 59 58 58 58 58 58 57 57 57 55 55 54 53 51 52 52 51 51 50 50 50 50 50 50 48 46 45 45 45 47 48
65 65 65 64 64 63 63 63 62 63 63 63 63 63 63 63 63 62 64 62 63 57 49 42 43 43 44 45 48 55 57 57 56 56 55 57 57 57 58 56 55 53 52 54 43 43 47 50 49 48 48 48 48 49 50 50 48 48 49 49 49 49 49
65 64 64 64 63 62 62 62 62 64 62 62 62 62 62 62 63 63 62 63 58 50 49 42 42 43 44 46 49 55 55 55 55 55 55 56 57 57 57 57 56 54 53 52 41 39 42 46 48 47 47 47 47 47 47 50 48 46 44 43 43 43 43
65 64 63 64 63 62 62 62 62 63 61 61 61 61 63 62 63 63 61 59 53 51 47 43 41 42 43 45 50 55 54 54 54 54 55 56 56 56 58 57 56 54 52 51 38 39 39 46 47 46 46 46 45 45 46 48 50 50 47 46 45 43 42
65 64 63 63 62 61 61 61 62 62 62 62 61 62 63 63 60 53 53 52 50 48 46 43 41 40 41 42 49 54 55 55 54 53 53 54 54 55 56 54 52 52 52 46 36 38 37 43 46 45 45 43 43 43 44 45 45 43 43 43 43 45 45
63 63 63 62 62 61 62 61 61 61 61 62 62 62 60 56 54 53 52 51 50 49 46 45 42 41 42 43 45 52 53 52 51 50 52 53 52 52 53 54 51 39 37 37 38 36 37 38 42 43 42 41 41 41 43 41 42 42 42 42 42 43 43
62 63 63 62 62 61 61 61 60 60 60 60 60 59 55 54 52 51 51 50 49 48 47 45 42 40 41 41 42 46 51 50 49 49 49 50 50 49 50 51 44 38 38 37 37 38 38 38 38 40 40 40 41 42 40 40 41 41 40 40 41 41 41
63 62 62 62 60 60 61 61 60 60 59 59 58 55 54 52 51 49 49 49 47 47 47 46 44 40 40 41 41 43 48 46 46 47 47 47 48 49 50 50 44 39 38 39 38 39 39 38 38 39 40 39 39 38 39 40 40 39 39 39 39 40 40
61 62 61 61 60 59 59 59 59 59 57 57 57 54 53 51 49 48 47 47 47 47 46 46 43 43 40 40 39 39 40 44 40 46 45 45 46 48 50 50 43 38 38 38 38 37 37 38 37 38 38 38 38 37 37 38 38 39 39 39 39 38 39
62 61 61 60 60 59 59 58 58 58 57 57 55 51 51 51 50 48 46 46 46 47 46 45 42 41 41 38 39 39 38 39 41 46 47 46 47 47 49 49 46 39 39 38 38 38 38 38 39 39 39 38 38 37 38 38 38 39 39 38 38 38 38

ECMWFFLT1_sfc_temp_033.txt.gz
Temp
60 61 62 61 62 63 62 63 63 62 63 63 63 63 63 63 62 62 61 61 62 63 63 60 60 60 61 61 61 59 60 60 59 58 57 58 57 56 59 58 59 60 59 60 59 55 53 54 55 58 61 62 62 64 65 65 66 66 65 66 68 67 66
63 62 62 63 62 63 61 60 62 61 62 63 63 62 61 63 63 61 59 60 60 61 63 62 60 60 59 58 59 59 58 59 59 58 57 57 58 57 57 57 57 57 58 58 58 58 55 53 53 55 56 60 61 62 63 64 65 65 66 66 67 68 67
63 62 62 61 61 60 61 60 60 61 60 61 61 61 60 60 60 60 61 60 59 61 61 60 59 59 59 59 57 58 58 58 57 58 57 56 58 57 57 57 56 56 57 57 58 57 58 57 54 54 55 56 55 57 61 62 62 64 65 65 65 67 67
62 61 61 60 60 59 61 61 60 60 60 60 60 61 61 61 60 61 59 60 61 61 61 60 59 59 58 58 59 58 58 57 57 57 58 57 57 57 57 56 56 56 55 55 54 57 57 54 53 54 56 59 57 56 58 61 62 63 64 64 64 65 66
63 62 61 60 60 60 60 59 59 59 60 60 59 59 59 59 59 59 59 59 59 59 60 58 59 61 60 60 58 58 58 57 57 58 56 56 55 56 57 57 56 57 56 56 56 56 55 54 55 53 55 58 58 60 63 59 61 61 61 62 64 64 65
63 63 62 61 60 61 60 59 60 59 58 59 58 60 58 59 59 59 58 58 59 58 58 60 59 59 58 58 58 57 57 57 55 55 54 54 55 55 54 55 56 57 57 56 57 55 54 55 53 51 53 57 55 54 58 59 58 61 63 63 64 65 66
63 63 62 62 61 61 61 60 61 60 60 60 59 59 60 60 59 58 59 58 58 58 59 58 58 59 59 59 58 57 57 55 56 55 54 54 54 54 55 55 56 56 55 56 55 56 55 54 52 52 51 51 53 56 58 59 64 61 62 65 65 67 66
63 63 62 63 62 62 61 61 61 61 60 60 60 61 61 60 59 58 59 59 58 57 58 59 61 57 58 59 59 57 57 57 57 56 55 55 57 55 54 54 56 55 55 56 54 56 56 55 54 53 52 51 49 48 51 56 59 60 61 64 68 67 67
64 64 62 63 62 62 62 62 61 61 61 61 61 61 61 61 60 59 59 58 58 58 59 59 59 58 57 58 57 56 57 60 56 55 55 54 54 55 55 54 56 54 55 55 56 55 55 55 56 54 53 50 49 46 49 48 52 55 63 61 63 67 68
63 63 62 62 62 62 63 63 61 62 62 62 62 62 62 60 60 60 60 59 58 58 58 59 59 58 56 58 57 55 56 58 56 56 55 55 55 54 53 54 54 54 54 54 55 55 54 54 56 55 54 53 51 49 47 46 48 51 57 61 60 61 66
64 63 61 63 63 62 62 63 62 62 62 63 63 63 62 61 60 63 59 59 58 57 57 58 58 58 57 57 57 56 57 55 55 56 55 54 55 54 55 55 54 55 54 53 55 55 54 54 53 54 54 54 53 51 50 47 46 50 53 56 60 60 64
63 64 62 63 63 62 62 62 62 62 62 62 62 61 61 61 60 60 59 59 59 58 57 58 58 57 57 56 57 56 57 55 55 56 55 56 56 55 56 56 54 54 54 54 54 54 54 53 56 54 53 53 54 52 51 50 47 47 54 55 55 60 61
64 65 63 64 64 63 62 63 62 62 62 63 62 62 62 62 60 60 59 59 59 58 57 58 57 57 57 55 56 57 56 56 55 55 56 56 60 56 55 54 54 54 54 53 53 54 54 54 53 55 55 55 54 53 53 51 49 50 51 55 54 58 61
63 63 63 63 63 62 61 62 62 61 60 61 62 62 62 62 61 61 61 59 60 58 58 57 57 56 57 56 56 56 56 56 56 55 55 56 58 55 55 55 54 54 54 54 53 53 53 55 54 54 54 54 54 51 54 52 50 50 50 51 55 57 58
63 62 62 61 62 61 61 62 61 62 61 60 60 63 63 62 61 61 61 60 59 59 59 59 57 56 57 56 56 57 57 56 55 55 55 55 55 58 55 53 55 54 56 54 54 56 55 54 56 55 54 55 53 53 51 52 49 50 51 51 53 55 57
61 61 61 61 61 62 61 60 60 61 61 60 60 61 61 61 61 61 60 60 60 59 60 60 59 58 57 57 56 56 57 55 55 54 54 55 55 56 55 54 53 54 56 54 54 55 53 54 55 55 54 53 53 53 53 55 53 50 49 50 52 54 54
59 60 60 59 60 60 60 59 61 61 62 62 62 60 61 60 60 59 58 59 59 61 60 60 60 61 60 59 58 58 56 56 57 55 54 55 56 55 53 54 54 53 53 52 55 53 52 53 52 52 52 53 52 52 53 51 52 52 47 49 48 53 55
59 60 60 59 57 57 57 58 58 59 59 60 62 62 59 57 58 59 59 59 60 60 60 59 58 59 60 60 60 59 58 57 57 57 55 56 58 56 54 55 54 53 52 52 52 52 51 51 54 52 52 52 52 52 53 51 51 52 49 48 49 51 52
58 58 58 56 55 55 55 56 57 59 59 59 60 60 58 57 58 59 59 59 60 60 58 58 58 59 61 61 60 59 59 59 58 58 56 56 57 55 56 55 54 53 52 51 51 52 52 52 52 50 51 51 52 51 49 50 51 50 49 48 47 48 49
57 57 56 56 55 56 56 56 57 58 58 59 58 57 56 57 57 59 60 59 60 60 59 59 58 59 60 60 61 61 59 59 58 58 57 57 58 55 57 55 53 53 52 51 51 51 50 48 50 47 48 48 49 48 48 48 49 49 48 48 48 47 48
58 57 56 55 55 56 56 56 56 56 57 58 57 57 56 57 57 57 58 58 58 57 58 58 58 59 59 59 58 61 61 59 60 59 58 57 56 56 56 55 53 53 53 51 50 50 49 47 46 47 46 48 46 46 45 46 46 46 46 46 45 45 46
56 56 56 56 55 55 55 54 55 55 55 55 57 56 56 57 57 56 57 56 56 56 57 58 58 59 58 59 60 59 61 61 60 59 59 58 56 56 56 55 54 53 56 56 52 52 51 50 48 49 45 47 46 45 44 44 45 43 44 44 44 45 44
56 55 54 55 56 56 55 54 54 53 55 55 56 55 55 56 56 56 56 56 55 56 57 58 58 53 54 59 57 59 58 58 59 59 59 58 58 58 56 55 57 60 55 53 50 47 47 48 50 51 47 47 47 46 44 43 43 43 43 42 42 42 42
58 58 56 54 54 56 56 56 54 55 54 54 55 55 55 54 55 56 57 56 55 56 57 58 52 48 46 48 56 56 57 57 58 58 58 58 57 57 57 58 57 56 54 52 50 44 46 46 47 48 48 49 49 46 44 43 42 42 43 44 43 42 41
57 57 58 58 57 57 56 55 55 55 55 54 55 54 54 56 56 56 56 56 56 57 57 54 48 47 47 46 50 57 57 58 57 56 57 57 56 56 56 56 56 56 55 55 55 52 50 47 45 44 43 43 43 44 45 45 44 42 41 42 42 42 42
57 56 58 59 59 58 57 55 54 54 54 56 54 54 56 55 55 55 55 55 56 56 57 52 47 47 47 46 45 51 56 58 57 56 57 57 57 56 55 55 55 55 57 57 56 53 52 50 47 44 43 43 43 42 40 39 40 45 44 42 42 42 42
56 55 55 55 55 55 55 55 55 55 57 56 55 53 53 54 55 54 55 56 56 56 56 52 48 47 46 45 45 49 56 55 56 57 57 56 56 55 55 55 54 54 55 55 54 53 52 49 48 47 43 41 41 43 42 40 40 40 41 42 42 42 44
55 56 55 55 53 53 53 52 53 54 55 56 55 55 54 53 51 52 52 53 54 53 54 49 46 46 46 45 45 50 54 54 53 54 54 53 53 54 54 54 54 53 53 53 52 51 51 47 45 45 43 43 42 42 43 44 43 41 42 41 41 42 43
54 54 54 54 55 54 52 52 52 51 52 52 52 52 53 52 51 51 51 51 53 46 44 43 45 45 44 43 47 52 53 52 52 50 50 49 51 53 53 52 51 52 53 52 46 46 48 49 49 47 44 43 42 42 43 46 46 45 45 43 42 42 42
54 55 54 55 54 53 53 52 52 51 54 50 51 51 50 51 49 48 48 50 46 42 40 40 41 42 42 44 46 50 50 51 50 50 50 51 52 52 52 52 52 52 52 51 44 42 43 46 47 45 42 41 41 41 42 43 44 43 42 41 41 41 40
54 53 53 54 52 50 49 49 50 50 54 51 50 49 51 48 45 46 45 44 43 41 38 40 41 42 44 45 48 49 48 48 49 49 50 51 53 54 54 56 54 53 51 48 39 38 39 43 41 39 39 38 38 37 38 39 42 41 41 41 41 41 41
53 52 52 51 51 52 51 51 50 52 51 51 50 48 46 45 44 43 43 43 45 42 39 41 42 42 44 45 47 49 49 48 47 47 48 48 48 48 48 44 45 45 44 40 37 38 39 41 40 38 36 36 36 35 36 36 36 37 37 38 38 40 40
51 51 50 49 48 50 49 51 52 51 50 50 50 45 45 45 44 42 42 42 42 41 41 40 41 41 43 43 45 48 47 46 45 45 45 46 44 43 44 42 40 37 38 38 38 38 38 39 40 38 37 36 35 36 37 36 37 37 35 36 35 36 37
50 49 49 50 49 49 50 50 49 51 51 48 46 45 43 43 42 41 41 40 40 39 41 40 41 41 42 42 43 44 44 44 43 43 42 42 43 43 44 40 40 38 38 38 38 37 38 38 39 39 37 36 37 39 38 35 37 39 35 35 36 36 36
51 53 51 51 50 48 48 49 49 49 48 46 45 44 42 41 40 39 39 39 39 39 42 43 41 41 41 42 42 42 44 44 44 43 41 42 43 44 45 43 41 39 37 37 37 38 38 38 38 38 37 38 38 38 37 36 36 35 34 34 33 33 34
50 53 53 51 50 49 48 48 48 48 49 45 44 43 41 40 40 39 38 38 38 38 38 41 42 41 40 40 40 41 41 43 41 45 43 42 43 44 45 43 41 39 39 39 39 38 38 38 38 37 37 37 37 37 37 35 34 34 32 33 33 33 33
50 50 49 49 49 47 47 47 47 50 48 46 43 42 39 40 39 38 38 37 39 38 40 41 41 41 41 39 40 39 39 39 41 45 45 44 44 44 43 42 41 39 39 38 38 38 38 38 37 37 37 37 37 37 35 34 33 33 33 32 33 34 36

ECMWFFLT1_sfc_temp_036.txt.gz
Temp
58 58 57 57 57 58 58 58 58 58 58 59 59 58 59 60 60 59 58 58 58 59 59 57 57 57 58 58 58 57 57 57 56 57 57 57 54 55 59 57 58 59 57 57 56 54 50 53 55 55 58 59 60 61 63 63 65 64 64 64 66 65 64
58 59 58 58 58 58 56 56 57 57 57 58 58 58 57 59 60 58 56 57 57 58 59 58 57 58 56 56 56 57 56 56 56 55 55 54 54 56 58 57 58 57 56 57 57 57 53 50 50 53 54 56 57 59 60 62 64 64 65 65 66 65 64
59 58 58 57 57 56 56 56 56 57 57 56 56 56 57 58 58 58 56 57 56 58 58 55 55 56 56 55 54 55 55 56 54 55 54 53 54 54 55 56 55 54 55 57 57 56 56 55 53 53 54 54 54 55 57 60 61 63 63 63 64 64 63
58 58 57 57 56 55 57 55 56 56 56 56 56 55 56 56 57 58 57 57 57 58 57 57 55 55 55 55 55 55 55 54 54 54 54 53 54 54 54 53 52 53 54 52 53 53 52 51 50 52 51 54 54 54 56 59 60 62 63 63 63 63 64
59 59 59 57 57 57 56 56 55 56 55 56 55 55 56 56 57 56 56 56 56 55 55 56 56 56 56 55 55 54 53 53 54 55 53 53 53 53 52 52 54 53 53 53 53 53 53 53 52 51 52 54 52 54 58 59 60 61 61 60 62 62 63
60 60 59 57 57 57 56 56 55 55 56 56 55 57 55 55 56 56 56 56 56 56 55 55 54 55 55 55 55 53 53 53 52 53 52 51 51 53 52 51 52 54 53 52 52 52 52 52 51 49 51 53 53 51 53 56 57 59 63 61 63 63 63
59 59 59 58 57 57 57 57 57 57 56 57 56 56 57 56 55 56 55 54 54 54 55 54 54 55 55 55 54 54 53 52 52 51 51 51 51 50 51 52 52 52 51 52 52 53 51 50 49 50 49 48 49 52 52 55 57 58 60 62 62 64 63
61 60 59 59 58 57 57 58 57 56 57 57 57 58 56 56 55 55 55 54 55 54 54 54 56 55 55 56 55 53 52 52 52 53 51 52 54 52 50 51 53 51 51 52 52 53 53 51 50 50 47 49 47 45 49 50 52 56 56 58 61 63 63
62 61 59 59 58 58 58 58 57 57 58 57 57 57 57 57 56 56 56 55 54 54 54 53 53 55 54 54 53 53 53 55 53 52 50 50 51 50 50 50 52 51 51 51 52 51 51 52 52 49 48 47 45 47 45 47 48 51 55 57 57 61 63
61 60 60 60 60 59 59 58 58 58 57 58 59 58 57 55 56 57 56 55 55 54 54 54 53 52 53 54 53 52 52 52 53 52 51 52 50 50 49 50 50 50 51 50 51 51 51 50 52 51 50 50 47 45 44 45 46 48 52 55 56 56 61
63 62 62 62 61 60 59 59 58 57 57 59 60 60 58 57 57 59 56 55 54 54 55 54 54 53 53 53 52 52 52 51 53 52 52 51 52 51 51 50 50 51 50 50 52 50 49 49 50 51 50 49 50 48 44 45 45 45 50 50 54 55 57
62 63 63 63 62 61 60 59 59 60 59 58 59 58 57 57 58 57 57 56 56 56 54 53 53 53 53 53 53 53 52 51 51 52 53 53 53 52 50 51 50 51 50 51 50 49 50 49 50 49 49 49 49 49 46 44 45 45 51 52 50 54 55
63 62 62 62 61 62 62 60 60 58 59 59 59 59 58 58 58 57 57 58 57 57 57 54 54 53 52 53 54 53 52 52 53 53 54 52 54 52 49 51 52 52 51 48 50 51 50 50 50 50 50 51 48 47 45 45 47 48 47 52 51 53 56
62 61 62 61 62 61 61 61 60 61 59 59 60 60 60 59 59 59 58 58 58 58 58 56 55 55 53 53 52 52 52 52 53 51 52 53 54 52 50 52 52 53 50 50 49 50 51 50 50 50 49 49 50 48 50 49 49 48 48 46 50 53 54
62 61 61 60 61 60 59 60 59 57 59 60 60 60 61 60 60 59 59 59 58 58 57 57 55 56 55 53 53 54 55 53 53 52 51 52 52 53 51 51 53 51 51 50 49 53 50 50 52 51 50 52 49 51 48 50 47 47 49 50 51 52 53
58 57 57 58 58 58 58 58 58 58 58 58 58 59 59 59 60 60 58 57 57 57 58 58 56 56 56 55 54 53 55 53 53 52 52 52 53 52 51 51 50 51 53 52 50 48 49 50 50 51 50 50 49 48 49 49 49 47 45 48 45 52 51
56 56 56 56 57 59 58 58 58 59 58 57 58 56 57 58 59 59 58 56 56 56 56 56 56 56 57 56 55 55 54 54 54 53 54 54 53 53 52 50 50 50 50 51 51 48 48 49 49 49 48 48 48 49 49 48 48 48 44 47 45 50 51
55 56 56 56 57 58 59 59 58 59 59 58 58 57 57 57 56 57 58 57 56 56 56 56 57 56 56 56 56 55 55 55 55 55 55 55 56 54 53 54 52 51 49 51 51 49 48 48 49 48 48 48 48 47 48 47 47 46 45 45 45 44 48
56 55 56 56 57 57 57 58 59 57 58 59 58 58 58 56 57 57 57 57 57 57 57 58 58 58 57 55 55 56 56 56 56 56 55 54 55 55 55 54 53 52 51 52 49 48 48 47 47 46 46 47 47 46 45 45 45 44 45 44 43 44 44
54 54 54 54 54 54 55 55 56 57 56 57 56 56 54 56 55 56 56 57 57 58 58 58 57 57 58 58 57 56 56 56 56 55 55 55 55 55 55 55 53 52 52 51 50 50 49 49 49 48 48 46 45 45 45 44 44 44 43 43 42 44 43
56 56 55 54 54 55 55 55 55 55 54 55 55 55 55 56 55 55 56 56 56 56 56 56 56 56 57 56 56 56 56 56 56 55 56 56 55 54 55 55 54 53 53 52 53 52 53 51 50 50 49 49 46 44 42 42 42 42 42 42 41 40 40
54 55 55 55 55 54 54 54 54 54 53 53 54 55 54 54 54 54 54 55 56 56 56 56 56 56 56 56 56 56 56 57 56 56 56 56 56 56 56 56 54 53 55 57 54 53 53 52 52 51 49 48 46 44 43 42 42 41 41 41 41 41 40
53 53 52 53 54 53 52 52 51 51 52 51 51 51 52 53 54 54 54 53 53 54 55 57 56 52 53 57 56 57 57 56 57 56 56 56 56 56 57 56 56 59 57 55 51 48 47 48 51 52 50 49 49 46 44 43 42 41 41 41 40 39 40
50 52 52 50 50 51 52 51 51 51 51 50 50 50 51 51 51 52 53 52 53 53 55 56 51 47 47 49 56 55 55 55 55 56 56 56 55 56 56 56 56 57 55 53 50 46 46 45 45 46 46 47 48 49 45 44 41 41 42 41 40 39 38
50 51 51 49 49 50 50 50 50 51 50 50 50 50 50 52 51 50 51 50 52 53 54 52 47 46 46 45 49 56 55 55 54 54 55 55 56 56 56 56 56 55 53 53 53 50 47 44 43 44 44 44 43 43 45 45 43 42 40 40 40 39 38
50 50 50 50 51 49 49 50 51 51 53 51 50 50 50 50 51 51 50 50 51 53 53 50 46 46 45 44 44 49 54 55 55 53 53 55 55 55 55 54 54 53 55 56 54 51 51 49 44 43 44 44 43 42 40 39 42 44 42 40 39 38 39
51 52 51 49 48 47 48 49 48 48 51 50 50 48 48 49 49 50 50 51 52 53 53 50 46 45 45 43 42 44 52 53 53 54 54 54 54 54 54 54 53 51 52 53 53 52 51 49 48 48 46 44 43 44 42 40 39 39 41 41 40 39 40
50 50 50 48 47 48 48 47 48 48 48 48 48 48 47 47 46 47 47 47 50 51 54 48 44 44 43 43 42 42 51 52 52 51 51 51 51 51 51 51 50 49 48 49 50 50 49 46 45 46 45 45 42 41 43 43 41 39 38 38 38 38 39
48 48 49 50 53 54 51 50 52 47 47 45 44 45 46 44 44 45 44 44 45 46 43 38 40 43 45 43 41 47 48 47 46 46 46 47 49 49 50 50 49 48 48 49 47 45 47 47 45 45 45 42 42 42 41 43 41 41 41 39 38 39 38
48 48 48 49 48 47 47 48 46 45 50 45 45 44 43 41 41 41 41 41 41 40 36 40 39 42 41 40 44 48 46 47 46 45 46 47 48 49 49 49 50 50 50 49 42 40 42 45 43 43 43 40 39 37 37 39 40 40 40 40 40 41 40
49 48 47 50 49 46 44 43 44 43 51 50 48 43 41 40 41 40 38 39 39 37 36 40 41 40 41 43 46 47 46 45 45 46 45 46 46 45 47 52 50 47 44 43 39 39 40 41 38 37 36 35 35 34 35 35 38 39 40 40 40 39 39
49 49 48 47 46 45 45 46 45 44 46 45 43 39 40 40 39 39 38 39 45 38 37 40 41 41 42 44 45 45 46 45 44 43 44 43 43 42 43 43 45 44 43 41 38 39 39 40 38 37 35 35 36 35 37 34 34 35 35 36 36 37 37
47 47 47 45 44 45 45 44 44 45 44 41 40 40 40 40 38 37 36 36 38 37 37 38 39 40 41 42 44 45 45 45 43 42 43 44 42 41 41 42 41 39 38 38 38 38 39 39 40 38 36 39 39 37 35 34 35 34 33 34 33 33 34
50 47 47 48 45 45 44 47 45 47 44 39 40 39 38 38 38 36 36 36 36 37 39 37 39 40 41 41 42 43 42 43 42 43 44 44 43 41 40 40 41 39 38 38 38 38 38 39 40 41 40 39 38 37 37 34 34 39 33 33 34 34 34
46 48 46 45 46 45 43 43 44 45 39 40 40 39 36 37 36 35 35 35 35 36 40 42 39 40 41 41 41 42 43 43 45 45 44 43 43 42 40 40 39 38 37 37 37 37 37 38 37 41 39 38 37 37 34 35 33 33 33 33 31 31 32
45 48 47 46 46 45 42 41 42 43 41 38 39 37 36 36 36 35 34 36 34 35 35 39 41 40 40 41 41 41 41 42 41 46 45 43 42 41 41 41 41 39 37 37 37 37 37 37 38 37 37 36 36 36 36 33 32 32 30 31 32 31 31
46 45 45 45 45 45 43 41 41 42 41 39 38 37 35 36 35 35 35 35 35 35 36 37 40 41 40 39 39 39 39 39 40 42 42 41 41 42 40 39 39 38 38 38 38 37 37 37 36 36 36 36 36 36 34 32 32 32 31 30 31 30 31

ECMWFFLT1_sfc_temp_042.txt.gz
Temp
56 56 53 53 53 55 54 55 55 54 55 55 56 56 56 57 56 55 55 55 56 57 58 55 55 55 56 56 56 57 57 58 60 60 58 59 58 57 60 59 58 58 57 57 56 58 54 54 57 57 59 58 60 59 60 62 63 63 63 63 64 63 63
54 55 55 55 54 54 54 53 54 54 54 54 55 55 55 57 58 55 54 55 55 56 57 55 54 54 53 53 55 56 56 56 58 58 58 56 56 57 59 58 57 56 56 57 57 57 53 53 53 53 55 58 59 57 58 61 62 62 63 63 63 63 62
56 54 53 53 53 53 54 52 53 53 54 54 53 53 54 54 54 55 54 54 54 56 56 53 53 53 53 53 53 53 54 54 54 56 55 53 56 57 58 56 56 54 56 57 55 54 55 54 53 54 53 54 52 55 57 59 61 61 61 61 61 61 59
54 55 54 52 52 53 54 52 52 52 52 52 54 53 53 54 55 56 54 54 56 58 55 54 54 54 53 53 53 53 53 53 52 53 53 54 55 55 54 54 54 53 56 57 56 54 55 54 53 53 54 56 56 55 57 59 60 62 63 62 62 62 62
56 56 56 54 53 53 53 53 51 52 52 52 52 53 53 54 55 54 55 54 54 53 53 53 53 53 53 53 53 53 52 52 53 53 52 52 52 52 51 52 52 52 53 54 54 53 55 56 55 53 53 54 58 58 59 58 62 62 62 62 63 62 62
58 57 56 54 52 53 52 52 52 53 52 55 53 54 54 53 54 54 54 55 54 54 53 53 52 53 53 53 53 52 52 52 52 52 52 51 52 53 52 51 52 53 52 51 52 52 51 52 53 53 53 54 55 55 57 56 58 60 62 62 62 62 62
58 58 57 56 53 53 53 52 52 53 53 54 53 54 53 53 53 54 54 53 53 53 53 52 52 53 53 54 53 53 52 51 52 52 51 51 51 51 52 53 53 53 52 52 52 53 52 52 51 52 51 51 52 55 55 56 58 59 61 62 63 63 62
59 58 57 57 55 54 52 53 52 51 53 52 53 53 53 52 52 52 53 52 53 53 53 54 54 53 53 54 53 52 52 51 52 52 51 52 52 52 52 53 53 52 52 53 53 52 53 54 53 50 50 53 52 51 53 54 56 56 55 60 61 62 61
59 58 57 57 56 55 54 53 52 51 52 52 52 53 52 52 52 53 53 52 52 52 53 53 53 53 53 53 53 53 53 54 52 52 51 51 50 50 50 51 53 51 51 52 52 52 53 52 52 50 50 49 52 51 50 52 53 55 57 58 61 61 61
58 58 58 57 57 56 55 54 53 52 51 52 53 53 52 51 52 52 53 52 52 52 53 53 53 52 52 54 53 52 53 53 54 52 51 51 49 50 51 51 52 52 51 52 53 52 52 52 52 52 53 54 49 52 48 49 51 52 57 55 56 59 60
59 60 59 59 57 56 55 56 55 54 53 53 53 55 52 52 52 56 52 53 52 52 52 53 53 52 52 52 52 53 53 53 52 50 50 51 51 52 51 51 51 52 50 51 51 51 52 52 52 52 52 51 53 53 47 48 50 51 55 55 55 56 58
60 60 60 59 58 57 57 56 56 56 54 53 55 54 52 53 53 54 52 53 52 53 52 52 52 52 52 52 53 52 51 52 53 51 48 52 53 54 52 52 51 52 51 51 51 51 51 52 51 52 51 52 51 53 51 48 49 52 52 53 54 55 55
61 60 60 59 59 59 58 57 57 56 56 56 54 54 53 53 53 54 54 53 53 52 53 52 52 52 51 52 52 53 52 52 53 53 52 52 53 52 52 52 52 52 52 53 52 52 51 51 51 52 52 52 50 49 51 50 50 52 51 53 52 54 55
57 58 58 59 59 59 58 58 58 57 56 55 54 54 55 54 54 54 54 55 55 54 54 53 52 52 52 52 53 52 51 52 53 53 53 53 52 52 53 53 52 52 51 52 51 52 52 51 51 51 51 52 52 51 53 50 50 51 52 49 51 53 54
56 58 58 57 58 56 56 57 57 56 55 55 55 56 56 55 55 55 55 55 55 55 55 54 52 52 54 53 53 52 52 52 52 52 52 53 52 52 52 53 52 51 50 52 51 53 52 52 52 52 51 52 52 51 50 51 49 49 50 50 52 52 53
56 56 57 57 57 56 55 56 57 56 56 55 55 55 55 56 56 56 56 55 55 55 56 55 54 54 53 53 54 53 53 52 52 52 52 53 52 51 52 53 52 51 51 51 51 50 51 51 52 52 50 51 51 50 51 51 49 48 50 51 48 51 51
54 55 55 54 55 55 55 55 56 56 56 56 55 55 56 58 57 57 56 56 55 54 55 55 55 55 55 53 53 53 53 53 53 53 53 54 52 52 53 52 52 51 52 52 50 50 50 50 50 51 50 49 49 49 49 50 51 49 48 50 49 50 50
54 53 53 54 55 55 55 55 55 56 56 56 57 56 57 57 56 56 56 56 56 54 54 56 56 56 55 54 55 54 54 53 53 53 53 53 54 53 53 54 53 52 52 52 50 50 50 50 50 50 50 49 49 49 49 49 50 49 48 49 49 47 47
53 53 53 53 54 54 55 55 55 55 56 56 55 55 56 55 56 56 56 57 56 56 55 56 56 56 56 56 55 54 54 54 54 54 54 54 55 54 54 55 54 52 53 53 52 51 49 50 48 49 49 49 49 48 47 47 47 47 48 48 49 49 47
53 53 53 53 54 54 54 53 54 54 54 55 55 55 55 55 55 55 56 56 56 56 56 56 56 56 56 56 56 55 54 54 54 54 54 54 54 54 55 55 54 53 54 55 54 53 51 50 50 49 49 48 48 47 47 47 47 47 48 47 45 46 48
52 52 53 54 54 53 53 53 53 54 54 54 55 54 54 55 55 54 55 55 56 56 56 55 55 56 56 56 55 55 55 54 54 54 54 54 54 54 54 54 54 54 55 56 57 55 54 53 52 51 49 49 48 47 46 46 46 46 46 46 47 47 45
51 52 53 52 52 52 53 53 53 53 53 53 54 54 54 54 53 53 53 53 54 54 54 55 55 56 55 55 55 55 55 55 54 54 54 54 53 53 54 54 54 54 56 57 54 54 54 53 53 51 49 49 48 47 46 46 45 45 45 46 46 44 45
51 50 51 51 52 52 52 52 51 52 52 52 52 52 53 53 53 53 53 53 52 53 53 54 55 51 51 55 55 54 55 55 55 54 54 54 54 54 54 55 55 56 55 54 52 49 48 49 51 54 52 51 50 48 47 47 46 46 47 47 47 46 47
49 50 50 51 50 51 51 51 51 51 51 52 52 52 52 51 51 51 52 52 52 52 53 54 49 46 44 44 51 53 53 54 54 54 54 54 54 55 55 55 54 55 54 53 53 47 45 45 46 47 47 49 49 50 48 47 46 46 48 47 44 44 44
47 47 48 49 50 50 50 51 51 51 51 51 51 51 50 51 51 50 50 50 51 51 52 49 43 41 41 41 44 51 52 53 53 53 54 54 54 54 54 54 54 54 55 55 55 53 48 45 44 44 44 43 41 41 44 48 47 44 45 46 45 44 44
46 46 47 46 47 49 50 49 49 48 49 48 49 49 49 48 49 49 49 49 49 49 49 44 40 40 40 40 40 44 50 51 51 52 52 53 53 53 53 53 53 53 54 56 56 52 51 49 43 42 42 42 42 41 38 39 43 48 47 46 46 43 43
47 45 45 46 46 47 48 47 45 45 46 45 47 47 46 48 46 47 47 47 47 47 48 41 37 38 39 39 39 41 49 50 51 52 51 51 51 51 52 52 52 52 52 54 52 51 51 50 49 49 48 47 47 44 40 39 39 40 44 47 46 45 43
46 45 45 45 45 45 45 44 46 43 44 45 45 46 45 44 44 43 42 42 43 44 45 39 39 38 38 38 38 40 47 49 49 50 49 48 49 50 50 50 51 51 50 49 50 50 50 49 49 47 46 45 44 44 45 46 46 45 44 43 44 44 43
46 46 47 46 46 45 44 44 45 44 42 41 41 42 40 40 39 41 40 39 43 45 42 40 39 40 39 39 39 45 47 48 48 46 43 44 45 46 47 49 49 48 48 49 47 44 47 50 49 47 44 43 42 43 43 42 41 43 44 44 44 44 43
46 45 45 45 45 44 44 43 42 42 43 42 42 41 39 39 38 39 40 39 40 42 40 41 39 39 40 39 42 46 45 44 43 42 42 42 43 46 47 47 47 46 45 44 41 40 42 45 48 46 45 43 43 42 41 42 40 39 39 39 39 39 38
47 46 46 48 46 44 44 43 44 44 46 44 43 40 40 39 38 38 39 39 41 42 42 40 40 39 40 40 42 43 43 42 41 41 41 41 42 43 47 48 45 44 44 43 39 40 41 46 47 45 45 44 43 42 41 40 40 40 39 39 39 38 38
47 47 48 47 47 46 46 46 44 41 41 40 40 38 40 38 38 37 37 39 44 39 37 40 40 39 40 41 42 44 44 42 41 40 41 41 41 42 44 44 44 44 44 41 38 39 40 45 45 44 43 44 43 42 41 40 40 40 39 40 38 39 39
47 48 48 47 45 47 45 43 42 40 37 37 38 37 39 37 37 37 36 36 36 36 38 39 40 39 41 40 41 44 43 44 42 41 41 43 43 43 44 44 42 38 38 39 38 38 39 40 44 43 44 43 42 41 39 39 40 38 37 37 37 37 38
47 46 47 47 45 44 43 44 41 40 39 37 37 36 36 36 35 35 35 35 36 37 40 38 38 39 40 41 41 42 43 42 41 42 42 43 43 43 43 43 43 39 38 38 38 38 38 38 40 42 41 41 40 40 38 40 39 39 38 38 38 37 38
47 48 45 44 44 42 41 40 41 39 38 38 38 36 36 36 35 36 35 35 37 35 38 43 38 40 40 40 40 40 42 42 43 43 42 42 42 43 43 43 42 39 37 38 37 37 37 38 39 42 39 36 35 35 39 39 38 38 37 37 37 37 37
45 45 44 43 44 43 40 40 38 39 39 38 38 37 35 35 36 38 38 37 35 35 35 38 40 39 39 39 39 39 40 41 40 45 43 42 41 42 42 42 41 38 37 37 37 37 37 37 38 38 36 35 35 36 37 38 37 36 36 36 36 36 36
43 43 45 43 42 42 40 39 39 39 39 39 38 37 36 35 37 38 39 38 38 36 35 35 38 38 39 38 39 39 39 39 40 43 43 41 40 40 40 41 40 37 37 37 37 37 36 37 38 36 36 36 35 36 38 37 36 36 36 36 36 36 36

ECMWFFLT1_sfc_temp_045.txt.gz
Temp
69 67 66 66 67 68 68 67 69 68 68 69 69 70 70 70 69 69 68 69 70 70 71 70 69 68 68 66 64 65 67 69 68 67 65 66 64 63 65 64 64 65 64 62 62 64 65 64 63 67 67 65 65 64 65 68 69 68 67 69 71 70 69
68 67 68 68 68 68 67 67 68 69 68 68 69 69 69 70 69 69 69 69 69 70 71 71 69 69 68 68 68 68 66 66 67 66 67 66 66 64 64 65 67 64 63 64 65 66 65 63 61 63 63 65 63 61 62 64 66 66 68 68 68 69 68
67 66 68 67 67 68 67 66 67 68 69 68 67 68 69 70 69 70 70 69 68 69 69 69 68 67 66 67 66 66 65 65 65 67 66 65 66 66 66 66 66 66 66 67 66 65 64 64 62 62 64 63 60 61 64 63 64 66 68 68 68 69 68
66 66 66 65 66 67 67 67 67 67 68 68 68 67 67 69 68 69 69 69 69 68 69 70 69 69 67 66 66 66 66 66 67 64 63 63 64 65 66 68 68 68 67 66 66 67 66 63 64 63 65 67 64 61 63 64 66 70 71 69 69 69 69
66 66 67 66 67 67 67 66 67 67 67 67 68 68 68 68 68 68 68 69 69 68 68 68 68 69 68 68 68 67 66 65 65 65 65 64 65 66 66 67 67 68 68 68 68 69 69 67 66 64 65 67 67 67 68 68 71 70 71 72 71 69 69
67 68 68 67 67 68 67 67 67 67 67 67 68 68 67 67 68 68 69 69 68 67 67 67 66 67 68 68 68 67 66 66 66 67 67 65 66 67 66 67 69 70 68 68 69 69 69 69 68 65 67 69 63 64 68 70 68 71 72 71 72 71 70
66 67 67 67 67 68 67 67 68 68 68 68 67 67 67 67 68 68 68 67 67 67 67 66 66 66 67 70 68 68 66 66 66 66 65 64 65 65 67 68 68 68 67 68 68 68 68 68 67 66 64 66 66 66 69 70 71 69 69 72 73 72 70
66 66 66 66 65 66 66 67 67 68 69 68 69 67 67 67 67 67 68 68 67 67 67 67 67 67 66 68 68 66 66 66 67 67 66 66 65 65 65 66 66 67 67 69 69 69 70 69 69 68 66 62 62 65 64 68 68 67 67 69 72 71 70
66 66 65 63 63 63 63 64 63 67 69 68 67 67 66 68 67 67 68 67 67 67 67 67 68 68 66 67 67 66 65 66 66 66 66 66 64 64 65 66 67 66 67 68 69 68 69 68 69 69 69 68 63 60 63 62 64 64 68 68 69 70 70
65 65 65 63 63 61 60 61 63 67 67 67 67 67 66 67 67 68 68 67 67 67 67 67 67 67 67 67 67 66 66 66 67 66 66 66 65 66 66 66 67 67 67 67 68 68 67 68 69 69 70 69 69 64 61 60 61 62 64 68 67 67 70
66 67 66 64 63 61 60 61 63 65 67 67 68 67 68 67 67 67 68 67 66 67 67 67 68 68 67 67 67 67 66 66 66 66 66 66 66 66 66 66 67 67 67 68 67 66 68 68 68 69 69 70 70 68 65 61 59 63 62 65 67 66 68
67 67 66 65 64 64 62 62 64 66 65 65 67 67 67 68 67 67 67 67 67 67 66 66 66 67 68 67 67 67 66 67 67 66 66 66 66 66 66 65 66 67 66 66 66 67 67 68 68 70 69 70 69 69 67 65 59 60 64 62 64 67 67
68 67 66 65 65 65 64 63 63 65 65 65 65 66 68 68 67 67 67 67 67 67 67 66 67 67 67 68 68 68 67 67 67 67 67 66 67 67 66 66 66 67 66 67 67 66 66 66 67 69 69 69 68 68 68 67 62 59 63 63 64 65 66
66 67 66 66 66 65 64 64 65 65 66 65 64 64 65 67 68 67 68 68 68 67 67 66 66 67 67 66 67 66 67 67 68 68 67 66 66 66 67 67 66 65 66 67 67 67 67 67 67 68 69 69 68 68 68 65 62 59 60 63 64 65 64
67 67 66 66 66 66 66 66 66 67 66 66 67 67 66 66 68 68 68 68 67 68 68 68 67 68 68 66 66 65 66 66 67 67 66 67 67 66 65 67 67 66 66 67 66 69 68 68 69 70 69 69 69 67 69 67 65 63 59 61 62 65 65
67 66 66 66 67 67 66 66 66 66 67 67 68 67 65 68 69 69 68 68 68 68 68 68 68 67 66 66 66 65 65 65 65 65 66 67 68 68 66 66 66 66 65 66 65 66 66 68 70 69 67 69 68 67 68 69 66 63 62 61 62 64 63
65 66 66 66 66 66 67 67 68 67 68 68 68 68 69 69 68 68 67 68 68 67 67 67 67 67 67 67 66 66 65 65 66 66 65 67 67 66 67 66 66 66 66 65 66 66 66 67 67 68 66 66 66 65 66 66 67 65 64 61 61 65 64
65 65 65 66 66 66 67 67 66 65 64 65 66 66 67 67 65 65 63 64 65 66 67 67 67 67 65 64 65 65 65 66 65 66 66 66 63 65 66 66 67 67 66 65 65 65 66 64 68 67 66 67 67 65 64 66 67 67 65 63 60 61 62
62 61 62 64 65 66 66 66 65 63 66 66 65 64 64 63 64 64 63 64 66 67 64 63 63 64 66 66 65 64 64 64 64 65 66 66 66 66 65 67 67 66 65 64 65 64 64 64 66 65 66 67 68 65 64 64 65 66 66 64 63 60 60
62 62 63 64 65 66 66 66 67 66 67 67 67 65 64 65 64 64 64 65 66 65 64 63 63 64 66 67 66 66 64 64 64 64 65 66 66 66 67 67 67 66 65 65 65 64 63 63 63 64 64 63 65 64 63 64 64 65 64 63 62 63 61
62 63 64 65 66 66 66 67 68 67 67 67 67 67 66 66 66 65 64 64 65 65 65 65 65 66 66 66 66 65 64 63 63 64 65 66 66 66 66 66 66 67 67 67 66 66 65 64 64 63 64 63 62 62 62 62 62 64 63 63 63 61 62
64 65 66 66 66 65 65 65 65 65 64 65 65 66 66 66 66 66 65 64 65 64 63 62 63 64 65 65 66 65 64 64 64 64 64 65 65 65 66 66 66 67 66 62 57 58 59 59 63 63 61 61 60 61 61 62 62 63 63 63 61 61 61
65 66 65 65 65 64 64 64 64 64 64 65 65 64 64 64 65 65 65 65 64 62 62 63 58 51 51 61 65 66 66 66 66 65 64 63 63 63 62 64 64 60 55 54 52 48 47 48 52 60 63 60 61 61 61 61 62 64 63 62 62 61 60
64 64 64 64 64 63 63 63 64 64 63 63 62 63 63 63 63 64 64 64 63 63 62 61 43 42 43 43 56 62 64 66 65 65 65 65 64 62 61 62 63 60 57 54 54 47 46 45 45 44 48 52 55 61 61 59 60 61 61 61 60 58 56
62 62 62 62 61 62 61 61 61 61 60 59 58 59 60 60 60 60 60 61 61 61 60 44 40 40 41 41 45 56 60 62 63 64 66 66 66 65 65 64 64 64 63 62 61 58 51 45 43 44 44 46 46 44 48 57 55 53 56 57 55 55 54
63 62 61 60 59 60 60 59 59 58 58 57 58 58 57 56 57 57 58 58 59 58 60 41 38 38 39 40 40 46 57 58 60 61 62 64 66 66 65 65 65 64 65 57 60 63 63 56 44 42 42 41 41 41 40 40 43 55 59 59 57 54 55
63 62 61 60 60 61 61 61 59 59 57 57 58 57 56 56 55 57 57 57 58 58 58 43 38 37 38 37 37 43 58 56 58 58 59 60 62 64 64 64 64 64 65 64 64 62 62 60 57 54 55 57 56 49 42 41 41 43 51 57 57 56 55
63 62 62 62 63 63 62 61 62 61 61 61 61 61 60 60 58 58 58 58 60 60 57 40 40 39 38 38 37 44 56 54 55 56 56 57 59 60 62 62 62 62 62 62 62 59 61 60 59 57 57 56 56 54 54 55 55 55 54 55 56 54 52
63 63 63 63 63 62 61 61 61 60 60 60 60 60 59 60 60 60 58 59 62 62 57 39 39 39 38 39 41 55 56 57 57 58 58 58 59 61 61 61 62 61 60 60 48 44 53 61 60 58 56 55 54 53 50 44 40 43 49 52 53 52 52
59 60 62 63 62 61 60 59 58 60 61 61 61 60 59 59 59 60 60 61 62 62 62 47 38 39 39 39 49 61 60 61 59 58 57 57 59 59 58 60 61 60 59 57 43 42 44 52 59 58 56 54 54 55 52 49 42 39 38 38 38 37 37
60 58 59 61 61 59 60 61 61 62 64 62 61 60 60 59 58 58 58 58 57 60 60 48 39 40 40 39 50 62 62 61 58 57 56 56 58 57 53 46 54 59 57 53 39 41 43 55 59 57 56 54 53 50 47 46 46 43 39 38 38 37 38
59 58 59 58 58 60 61 61 61 61 62 63 59 59 60 61 59 58 56 55 47 54 59 52 40 39 39 40 53 63 63 62 59 57 58 56 56 57 55 49 43 48 50 44 38 40 42 53 58 56 55 55 52 49 47 46 46 46 46 47 49 48 46
61 62 64 61 60 61 60 59 59 60 58 60 60 59 59 61 60 57 55 56 54 54 57 58 49 36 41 40 42 60 63 62 59 56 58 58 57 56 55 54 48 39 39 39 39 39 40 43 54 54 55 54 51 47 48 47 46 46 47 47 48 48 48
61 61 63 61 60 59 59 59 57 56 55 54 56 55 54 56 56 54 53 54 56 54 53 56 52 38 39 41 40 46 63 61 60 59 58 58 58 56 56 54 52 40 38 38 38 38 38 39 42 51 51 49 46 43 44 47 43 40 47 46 48 48 50
60 61 60 59 57 56 54 54 53 50 50 51 51 52 53 55 56 55 54 53 54 54 51 45 56 44 39 40 40 40 57 60 60 60 58 58 57 56 55 54 52 41 37 37 37 37 38 39 39 49 43 37 35 37 46 47 48 49 49 49 50 50 50
58 59 58 58 58 56 53 52 52 53 53 54 55 55 56 56 57 57 56 56 55 54 53 52 40 49 40 40 39 39 42 52 43 58 59 57 55 54 54 51 47 37 37 37 37 38 38 39 42 42 35 36 36 36 42 50 48 49 49 49 48 47 48
59 58 59 58 59 59 55 55 56 57 58 59 58 58 58 57 58 58 58 57 55 55 54 54 44 39 44 38 39 39 39 41 43 57 58 57 55 54 53 51 45 37 37 37 37 37 37 39 41 35 36 35 37 41 48 48 48 47 45 45 46 47 47

ECMWFFLT1_sfc_temp_048.txt.gz
Temp
75 73 74 74 76 77 76 76 77 77 78 78 77 78 79 78 77 77 77 76 77 78 78 77 75 75 75 75 73 74 74 73 73 72 72 73 71 71 72 71 71 71 72 71 71 69 67 63 62 67 71 69 70 71 72 74 74 73 72 74 75 74 70
75 74 75 76 75 75 74 76 76 77 77 77 78 77 78 78 77 76 76 76 76 77 79 78 76 76 74 73 73 73 73 73 73 73 73 73 72 72 71 68 72 72 72 72 72 72 69 61 60 63 64 69 71 72 70 73 74 74 75 75 75 76 73
74 75 76 74 74 74 73 74 75 76 76 76 76 77 77 78 77 77 76 75 75 76 76 76 75 74 73 74 73 73 73 72 73 72 71 72 73 72 73 72 71 71 72 73 73 72 72 68 61 59 66 67 66 69 72 71 73 75 76 76 75 77 75
73 73 73 72 74 73 73 73 74 75 76 75 75 75 76 76 75 76 75 75 75 75 75 76 75 76 75 74 74 74 73 73 73 72 72 72 73 73 74 75 74 73 71 71 72 73 72 70 70 69 71 73 69 67 69 73 75 77 77 75 74 75 75
73 73 72 72 73 73 73 73 74 74 74 75 75 75 74 75 75 75 75 75 75 74 74 75 75 76 76 76 75 74 74 73 73 73 72 72 72 73 73 74 74 74 74 74 74 73 73 73 72 70 71 73 74 74 74 73 77 77 77 77 77 76 75
74 74 74 73 74 74 74 74 74 74 74 74 74 74 73 74 75 74 74 74 74 74 74 75 74 74 75 75 75 74 73 73 73 73 73 71 72 72 73 74 76 77 75 76 75 75 74 74 73 70 75 75 70 71 74 75 74 78 79 78 79 79 78
74 75 75 74 75 75 75 74 75 74 74 73 73 73 74 75 75 74 74 74 74 74 74 74 74 74 75 77 75 73 73 73 73 72 72 71 72 72 74 74 74 75 74 75 75 75 74 73 72 71 71 72 72 74 77 77 77 75 75 79 79 79 77
74 75 76 76 75 74 74 73 74 75 75 75 75 74 75 74 74 74 74 74 74 73 74 73 74 74 74 76 75 72 73 73 73 72 72 71 71 71 71 73 73 74 74 77 76 75 78 75 74 73 71 67 68 72 72 75 75 74 73 76 79 77 76
74 75 74 74 73 73 71 72 72 73 75 75 75 74 74 74 74 73 74 74 74 74 74 74 74 74 74 74 74 73 72 75 72 71 72 72 70 70 71 73 74 73 74 75 76 75 76 76 76 75 73 72 69 66 70 69 71 71 76 74 76 77 77
72 72 72 72 71 71 71 71 71 71 73 74 74 74 73 74 74 74 74 73 73 73 73 74 74 74 73 74 73 72 72 73 73 72 72 72 71 72 72 71 73 73 73 73 74 75 75 75 77 77 77 74 73 70 66 66 67 68 72 76 73 74 77
73 73 73 72 72 71 71 71 70 69 72 74 74 74 74 73 73 74 74 73 73 74 73 74 75 74 74 74 73 73 73 73 72 73 73 73 72 72 72 73 74 73 73 73 73 73 74 74 75 76 76 77 76 72 71 67 65 70 69 72 75 74 76
73 73 74 73 72 71 71 71 71 72 73 74 74 73 73 74 74 74 74 74 73 73 73 73 73 74 74 73 73 73 72 73 73 71 72 72 72 72 71 71 73 73 73 72 73 74 74 74 75 77 76 77 76 74 73 71 65 67 72 68 71 75 75
75 75 74 72 71 71 72 72 72 72 73 74 74 74 75 74 74 73 74 74 73 74 74 74 74 74 74 74 74 74 72 73 73 72 73 73 74 73 71 71 72 73 73 75 74 73 74 74 74 76 76 76 75 74 74 73 68 65 70 71 71 73 74
73 75 73 72 72 72 73 73 73 73 74 73 74 73 73 74 76 75 75 75 75 74 73 73 74 74 74 73 73 73 73 74 73 73 73 71 73 73 73 73 72 72 72 73 73 74 75 75 75 75 76 76 75 74 74 71 68 66 67 71 72 73 73
74 74 72 72 72 73 73 73 74 74 72 73 73 73 74 74 75 76 76 76 75 76 75 75 74 74 74 72 72 72 72 73 72 73 72 72 72 72 71 72 73 72 73 73 72 77 76 76 77 77 76 76 76 74 75 73 70 68 65 68 70 73 72
74 73 72 73 73 74 74 74 75 74 74 74 75 74 73 74 75 76 76 76 76 76 76 75 74 74 73 73 73 72 72 72 72 71 71 72 74 74 71 71 72 72 72 71 71 73 73 74 77 77 75 76 74 74 75 75 72 68 67 67 70 71 71
73 73 72 73 73 74 74 74 75 75 75 74 74 74 75 76 76 76 75 76 76 76 75 74 74 74 74 74 73 73 73 72 72 72 72 73 74 73 72 71 71 71 72 70 71 72 73 74 73 75 74 74 73 72 73 72 73 71 70 67 69 73 71
72 72 72 74 73 74 74 74 75 76 75 75 76 75 76 77 75 76 74 75 75 76 76 76 75 74 73 73 73 72 73 73 72 72 72 72 69 72 71 70 72 73 71 70 70 70 72 70 73 73 73 74 73 72 72 72 73 74 71 68 67 71 71
72 72 72 73 73 74 74 75 75 75 76 75 74 74 75 75 75 76 76 76 75 75 75 74 74 75 75 74 73 72 72 72 72 73 73 72 73 73 71 72 72 72 72 70 70 69 69 68 69 70 72 73 75 72 71 72 72 72 71 70 69 67 69
70 70 71 68 72 74 74 74 75 75 75 75 74 73 74 74 74 75 77 76 75 74 74 73 73 73 74 74 73 72 71 71 71 72 72 73 73 73 72 73 72 72 72 72 71 69 69 68 67 67 70 70 72 71 70 71 72 71 70 70 70 70 69
67 67 70 72 71 72 73 73 74 75 75 74 74 75 74 73 74 75 76 76 75 75 73 73 74 73 74 74 72 72 71 70 70 71 71 72 71 71 71 71 72 73 73 73 72 72 70 69 67 67 66 67 67 69 69 69 68 69 69 68 68 67 69
68 69 70 71 68 71 73 74 74 74 73 72 72 74 74 74 73 74 74 73 73 73 72 71 73 73 73 72 72 71 70 70 70 70 70 71 69 68 69 69 68 72 69 60 53 55 56 58 68 66 66 66 66 67 68 68 67 67 68 67 67 67 67
70 69 69 68 69 71 72 72 72 71 71 71 69 68 71 73 73 73 72 72 71 70 70 70 56 47 50 68 71 71 69 70 70 71 70 69 68 68 69 69 69 61 57 56 57 51 49 48 51 61 68 67 62 62 60 60 65 67 66 66 65 65 63
70 69 69 71 71 71 72 71 70 68 68 69 67 68 68 72 72 72 72 71 70 70 68 60 42 43 44 44 63 70 70 70 71 70 70 69 69 69 69 70 71 64 60 56 58 47 46 46 46 45 46 50 55 63 62 62 64 65 65 63 64 64 62
70 69 70 70 70 71 71 70 70 71 70 68 68 70 70 69 69 69 70 70 69 68 64 45 41 41 41 41 47 65 71 71 70 71 71 71 71 70 70 71 71 70 70 68 69 67 55 45 43 43 43 45 46 46 43 58 63 64 63 63 61 61 61
70 69 68 69 67 66 68 69 69 67 67 68 67 67 68 67 67 69 69 69 69 69 65 40 39 39 40 41 43 52 71 70 70 70 70 70 71 71 71 71 71 70 70 56 63 69 70 64 45 41 44 43 42 43 42 39 45 59 64 62 61 60 60
70 70 69 69 68 68 68 68 67 67 66 65 66 66 68 68 69 70 70 70 69 69 66 43 38 37 39 39 41 47 71 67 68 69 68 69 69 69 69 70 70 71 70 69 69 68 69 68 63 59 58 61 61 50 42 42 43 45 54 62 62 60 60
72 71 72 71 71 71 69 69 68 68 68 67 67 67 68 69 69 70 70 70 70 66 61 37 40 38 39 39 40 46 69 66 68 68 68 68 68 68 69 69 69 69 68 67 64 58 67 68 66 64 63 63 63 63 62 60 60 61 61 60 61 60 59
72 72 72 72 71 71 70 70 70 70 70 71 71 71 70 70 69 69 70 70 69 66 57 37 39 40 39 42 39 63 69 69 68 69 68 67 68 69 69 69 69 67 67 64 50 41 51 65 66 64 62 63 62 59 53 44 41 43 51 57 59 59 58
71 72 72 71 71 70 70 70 70 72 70 70 70 70 70 70 70 70 69 70 68 67 62 44 38 38 40 39 46 71 69 71 69 67 67 67 68 66 64 65 68 68 66 63 45 43 46 48 66 64 63 61 61 60 56 52 43 39 39 39 38 37 38
71 71 71 71 70 69 70 71 71 71 71 70 70 70 70 70 70 70 69 69 70 67 66 48 38 41 40 39 46 66 71 69 67 67 66 66 67 64 57 44 56 67 64 60 40 44 43 54 66 65 64 62 61 60 57 56 56 50 38 39 38 38 39
71 70 70 70 69 69 69 68 70 71 71 71 70 71 71 70 69 69 69 68 56 64 66 53 38 40 38 39 49 69 70 70 67 66 67 65 65 64 60 51 42 49 54 46 37 40 39 52 66 64 64 62 60 60 58 57 55 54 53 53 52 50 48
69 70 71 70 69 69 69 67 67 68 69 71 70 70 70 70 68 68 68 67 65 67 66 64 52 37 43 42 39 60 71 69 66 65 67 66 64 63 61 58 49 38 38 38 39 39 40 43 60 62 62 62 60 56 56 55 53 54 54 54 55 56 56
69 69 70 69 69 69 69 68 67 68 68 69 69 69 68 69 68 67 67 67 67 66 66 65 53 38 40 42 42 44 70 67 67 67 66 66 66 63 63 60 56 40 37 38 39 39 40 41 45 59 58 57 54 50 50 56 50 42 53 54 54 55 56
69 68 70 70 69 68 69 70 69 68 69 68 66 66 66 67 67 66 67 66 67 66 59 50 63 40 39 41 41 36 60 68 65 67 65 66 66 65 62 60 57 43 36 38 38 39 39 41 42 56 48 38 36 39 52 55 55 56 56 56 57 57 58
67 68 68 68 68 68 69 69 68 68 68 67 66 65 65 66 65 64 63 65 66 65 64 58 44 55 38 42 38 43 37 50 48 63 66 64 64 63 61 56 48 38 38 38 38 38 39 39 44 46 36 37 40 36 41 56 57 55 56 57 56 55 55
67 67 67 67 67 67 67 67 67 68 68 67 67 65 65 65 64 62 61 61 62 64 64 64 46 44 48 37 39 39 41 40 42 60 65 66 65 62 60 56 47 37 38 37 37 38 38 41 45 36 37 36 37 38 54 56 55 55 52 52 53 54 55